| time (UTC) | temp C | wind direction | speed KPH | gust KPH | rain 1hr cm | rain 24hr cm | rain mn cm | humidity % | barometer mb |
| 20260906002748 | 26 | 58 | 0.0 | 0.0 | 0.00 | 0.00 | 0.00 | 80 | 1015.7 |
| 20260906002603 | 26 | 58 | 0.0 | 0.0 | 0.00 | 0.00 | 0.00 | 80 | 1015.7 |
| 20260906002446 | 26 | 58 | 0.0 | 0.0 | 0.00 | 0.00 | 0.00 | 80 | 1015.8 |
| 20260906002438 | 26 | 56 | 0.0 | 0.0 | 0.00 | 0.00 | 0.00 | 80 | 1015.7 |
| 20260906002349 | 26 | 32 | 0.0 | 0.0 | 0.00 | 0.00 | 0.00 | 80 | 1015.7 |
| 20260906002040 | 26 | 38 | 0.0 | 0.0 | 0.00 | 0.00 | 0.00 | 80 | 1015.7 |
| 20260906001842 | 26 | 168 | 0.0 | 0.0 | 0.00 | 0.00 | 0.00 | 80 | 1015.7 |
| 20260906001638 | 26 | 110 | 0.0 | 0.0 | 0.00 | 0.00 | 0.00 | 79 | 1015.6 |
| 20260906001603 | 26 | 110 | 0.0 | 0.0 | 0.00 | 0.00 | 0.00 | 79 | 1015.6 |
| 20260906001435 | 26 | 173 | 0.0 | 0.0 | 0.00 | 0.00 | 0.00 | 79 | 1015.7 |
| 20260906001334 | 26 | 173 | 0.0 | 0.0 | 0.00 | 0.00 | 0.00 | 79 | 1015.6 |
| 20260906001102 | 26 | 173 | 0.0 | 0.0 | 0.00 | 0.00 | 0.00 | 79 | 1015.5 |
| 20260906001034 | 26 | 23 | 0.0 | 0.0 | 0.00 | 0.00 | 0.00 | 79 | 1015.5 |
| 20260906000934 | 26 | 23 | 0.0 | 0.0 | 0.00 | 0.00 | 0.00 | 78 | 1015.5 |
| 20260906000607 | 26 | 159 | 0.0 | 0.0 | 0.00 | 0.00 | 0.00 | 77 | 1015.5 |
| 20260906000434 | 26 | 159 | 0.0 | 0.0 | 0.00 | 0.00 | 0.00 | 77 | 1015.5 |
| 20260906000207 | 26 | 106 | 0.0 | 0.0 | 0.00 | 0.00 | 0.00 | 77 | 1015.5 |
| 20260906000004 | 26 | 28 | 0.0 | 0.0 | 0.00 | 0.00 | 0.00 | 77 | 1015.4 |
| 20260905235904 | 27 | 162 | 0.0 | 0.0 | 0.00 | 0.00 | 0.00 | 77 | 1015.5 |
| 20260905235602 | 27 | 104 | 0.0 | 0.0 | 0.00 | 0.00 | 0.00 | 77 | 1015.5 |
| 20260905235534 | 27 | 37 | 0.0 | 0.0 | 0.00 | 0.00 | 0.00 | 76 | 1015.5 |
| 20260905235459 | 27 | 285 | 0.0 | 0.0 | 0.00 | 0.00 | 0.00 | 76 | 1015.4 |
| 20260905235203 | 27 | 4 | 0.0 | 0.0 | 0.00 | 0.00 | 0.00 | 76 | 1015.5 |
| 20260905235035 | 27 | 4 | 0.0 | 0.0 | 0.00 | 0.00 | 0.00 | 76 | 1015.4 |
| 20260905234931 | 27 | 4 | 0.0 | 0.0 | 0.00 | 0.00 | 0.00 | 76 | 1015.4 |
| 20260905234723 | 27 | 41 | 0.0 | 0.0 | 0.00 | 0.00 | 0.00 | 76 | 1015.5 |
| 20260905234522 | 27 | 75 | 0.0 | 0.0 | 0.00 | 0.00 | 0.00 | 76 | 1015.4 |
| 20260905234236 | -17 | 0.0 | 0.0 | 0.00 | 0.00 | 0.00 | |||
| 20260905234135 | -17 | 0.0 | 0.0 | 0.00 | 0.00 | 0.00 | |||
| 20260905234003 | -17 | 0.0 | 0.0 | 0.00 | 0.00 | 0.00 | |||
| 20260905233834 | -17 | 0.0 | 0.0 | 0.00 | 0.00 | 0.00 | |||
| 20260905233735 | -17 | 0.0 | 0.0 | 0.00 | 0.00 | 0.00 | |||
| 20260905233502 | -17 | 0.0 | 0.0 | 0.00 | 0.00 | 0.00 | |||
| 20260905233407 | -17 | 0.0 | 0.0 | 0.00 | 0.00 | 0.00 | |||
| 20260905233206 | -17 | 0.0 | 0.0 | 0.00 | 0.00 | 0.00 | |||
| 20260905233007 | -17 | 0.0 | 0.0 | 0.00 | 0.00 | 0.00 | 1015.4 | ||
| 20260905232807 | -17 | 0.0 | 0.0 | 0.00 | 0.00 | 0.00 | 1015.4 | ||
| 20260905232634 | 27 | 39 | 0.0 | 6.4 | 0.00 | 0.00 | 0.00 | 75 | 1015.4 |
| 20260905232435 | 27 | 39 | 0.0 | 11.3 | 0.00 | 0.00 | 0.00 | 75 | 1015.4 |
| 20260905232336 | 27 | 39 | 0.0 | 11.3 | 0.00 | 0.00 | 0.00 | 75 | 1015.4 |
| 20260905232210 | 27 | 39 | 0.0 | 11.3 | 0.00 | 0.00 | 0.00 | 75 | 1015.4 |
| 20260905231912 | 27 | 39 | 0.0 | 11.3 | 0.00 | 0.00 | 0.00 | 75 | 1015.3 |
| 20260905231712 | 27 | 39 | 0.0 | 11.3 | 0.00 | 0.00 | 0.00 | 75 | 1015.3 |
| 20260905231511 | 27 | 32 | 0.0 | 11.3 | 0.00 | 0.00 | 0.00 | 75 | 1015.2 |
| 20260905231410 | 27 | 25 | 0.0 | 8.0 | 0.00 | 0.00 | 0.00 | 75 | 1015.1 |
| 20260905231310 | 27 | 75 | 0.0 | 8.0 | 0.00 | 0.00 | 0.00 | 75 | 1015.1 |
| 20260905231211 | 27 | 4 | 0.0 | 8.0 | 0.00 | 0.00 | 0.00 | 75 | 1015.2 |
| 20260905230911 | 27 | 37 | 0.0 | 0.0 | 0.00 | 0.00 | 0.00 | 75 | 1015.2 |
| 20260905230710 | 27 | 41 | 0.0 | 0.0 | 0.00 | 0.00 | 0.00 | 75 | 1015.1 |
| 20260905230509 | 27 | 76 | 0.0 | 0.0 | 0.00 | 0.00 | 0.00 | 75 | 1015.1 |
| 20260905230408 | 27 | 45 | 0.0 | 0.0 | 0.00 | 0.00 | 0.00 | 75 | 1015.1 |
| 20260905230308 | 27 | 34 | 0.0 | 0.0 | 0.00 | 0.00 | 0.00 | 75 | 1015.1 |
| 20260905230244 | 27 | 51 | 0.0 | 0.0 | 0.00 | 0.00 | 0.00 | 76 | 1015.1 |
| 20260905230146 | 27 | 48 | 0.0 | 0.0 | 0.00 | 0.00 | 0.00 | 76 | 1015.1 |
| 20260905230138 | 27 | 42 | 0.0 | 0.0 | 0.00 | 0.00 | 0.00 | 76 | 1015.2 |
| 20260905225636 | 27 | 65 | 0.0 | 0.0 | 0.00 | 0.00 | 0.00 | 75 | 1015.1 |
| 20260905225435 | 27 | 158 | 0.0 | 0.0 | 0.00 | 0.00 | 0.00 | 76 | 1015.0 |
| 20260905225403 | 27 | 20 | 0.0 | 0.0 | 0.00 | 0.00 | 0.00 | 75 | 1015.1 |
| 20260905225232 | 27 | 21 | 0.0 | 0.0 | 0.00 | 0.00 | 0.00 | 75 | 1015.0 |
| 20260905225032 | 27 | 21 | 0.0 | 0.0 | 0.00 | 0.00 | 0.00 | 75 | 1015.0 |
| 20260905224902 | 27 | 25 | 0.0 | 3.2 | 0.00 | 0.00 | 0.00 | 75 | 1014.8 |
| 20260905224833 | 27 | 66 | 0.0 | 8.0 | 0.00 | 0.00 | 0.00 | 76 | 1014.8 |
| 20260905224709 | 27 | 66 | 0.0 | 11.3 | 0.00 | 0.00 | 0.00 | 76 | 1015.0 |
| 20260905224520 | 27 | 54 | 0.0 | 11.3 | 0.00 | 0.00 | 0.00 | 76 | 1014.8 |
| 20260905224403 | 27 | 39 | 0.0 | 11.3 | 0.00 | 0.00 | 0.00 | 76 | 1014.7 |
| 20260905224213 | 27 | 38 | 0.0 | 11.3 | 0.00 | 0.00 | 0.00 | 76 | 1014.8 |
| 20260905224012 | 27 | 31 | 0.0 | 11.3 | 0.00 | 0.00 | 0.00 | 76 | 1014.7 |
| 20260905223902 | 27 | 30 | 0.0 | 11.3 | 0.00 | 0.00 | 0.00 | 76 | 1014.7 |
| 20260905223808 | 27 | 48 | 0.0 | 11.3 | 0.00 | 0.00 | 0.00 | 76 | 1014.7 |
| 20260905223605 | -17 | 42 | 0.0 | 0.0 | 0.00 | 0.00 | 0.00 | 1014.7 | |
| 20260905223407 | -17 | 0.0 | 0.0 | 0.00 | 0.00 | 0.00 | 1014.6 | ||
| 20260905223143 | -17 | 0.0 | 0.0 | 0.00 | 0.00 | 0.00 | |||
| 20260905223135 | -17 | 0.0 | 0.0 | 0.00 | 0.00 | 0.00 | |||
| 20260905222935 | -17 | 0.0 | 0.0 | 0.00 | 0.00 | 0.00 | |||
| 20260905222634 | -17 | 0.0 | 0.0 | 0.00 | 0.00 | 0.00 | |||
| 20260905222406 | -17 | 0.0 | 0.0 | 0.00 | 0.00 | 0.00 | |||
| 20260905222206 | -17 | 0.0 | 0.0 | 0.00 | 0.00 | 0.00 | |||
| 20260905222107 | -17 | 0.0 | 0.0 | 0.00 | 0.00 | 0.00 | 1014.5 | ||
| 20260905222005 | -17 | 0.0 | 0.0 | 0.00 | 0.00 | 0.00 | 1014.5 | ||
| 20260905221805 | -17 | 0.0 | 0.0 | 0.00 | 0.00 | 0.00 | 1014.5 | ||
| 20260905221637 | 27 | 86 | 0.0 | 0.0 | 0.00 | 0.00 | 0.00 | 79 | 1014.5 |
| 20260905221536 | 27 | 86 | 0.0 | 0.0 | 0.00 | 0.00 | 0.00 | 79 | 1014.5 |
| 20260905221334 | 27 | 86 | 0.0 | 0.0 | 0.00 | 0.00 | 0.00 | 79 | 1014.5 |
| 20260905221235 | 27 | 86 | 0.0 | 0.0 | 0.00 | 0.00 | 0.00 | 79 | 1014.5 |
| 20260905221033 | 27 | 86 | 0.0 | 0.0 | 0.00 | 0.00 | 0.00 | 79 | 1014.5 |
| 20260905220930 | 27 | 86 | 0.0 | 0.0 | 0.00 | 0.00 | 0.00 | 79 | 1014.5 |
| 20260905220728 | 27 | 86 | 0.0 | 0.0 | 0.00 | 0.00 | 0.00 | 79 | 1014.6 |
| 20260905220529 | 27 | 38 | 0.0 | 0.0 | 0.00 | 0.00 | 0.00 | 78 | 1014.7 |
| 20260905220509 | 27 | 0 | 0.0 | 0.0 | 0.00 | 0.00 | 0.00 | 78 | 1014.8 |
| 20260905220306 | 27 | 63 | 0.0 | 0.0 | 0.00 | 0.00 | 0.00 | 78 | 1014.8 |
| 20260905220200 | 27 | 61 | 0.0 | 0.0 | 0.00 | 0.00 | 0.00 | 78 | 1015.0 |
| 20260905220031 | 27 | 71 | 0.0 | 0.0 | 0.00 | 0.00 | 0.00 | 79 | 1015.0 |
| 20260905215901 | 27 | 72 | 0.0 | 0.0 | 0.00 | 0.00 | 0.00 | 78 | 1015.0 |
| 20260905215805 | 27 | 25 | 0.0 | 0.0 | 0.00 | 0.00 | 0.00 | 80 | 1014.8 |
| 20260905215529 | 27 | 25 | 0.0 | 0.0 | 0.00 | 0.00 | 0.00 | 80 | 1015.0 |
| 20260905215432 | 27 | 79 | 0.0 | 0.0 | 0.00 | 0.00 | 0.00 | 80 | 1015.0 |
| 20260905215231 | 27 | 39 | 0.0 | 0.0 | 0.00 | 0.00 | 0.00 | 80 | 1015.0 |
| 20260905215035 | 27 | 58 | 0.0 | 0.0 | 0.00 | 0.00 | 0.00 | 80 | 1015.0 |
| 20260905214829 | 27 | 34 | 0.0 | 0.0 | 0.00 | 0.00 | 0.00 | 80 | 1015.0 |
| 20260905214730 | 27 | 49 | 0.0 | 0.0 | 0.00 | 0.00 | 0.00 | 81 | 1015.1 |
| 20260905214514 | 27 | 37 | 0.0 | 0.0 | 0.00 | 0.00 | 0.00 | 81 | 1015.1 |
| 20260905214429 | 27 | 35 | 0.0 | 0.0 | 0.00 | 0.00 | 0.00 | 80 | 1015.1 |
| 20260905214233 | 27 | 65 | 0.0 | 0.0 | 0.00 | 0.00 | 0.00 | 80 | 1015.1 |
| 20260905214128 | 27 | 37 | 0.0 | 0.0 | 0.00 | 0.00 | 0.00 | 80 | 1015.2 |
| 20260905214013 | 27 | 37 | 0.0 | 0.0 | 0.00 | 0.00 | 0.00 | 80 | 1015.2 |
| 20260905213830 | 27 | 35 | 0.0 | 0.0 | 0.00 | 0.00 | 0.00 | 80 | 1015.2 |
| 20260905213758 | 27 | 24 | 0.0 | 0.0 | 0.00 | 0.00 | 0.00 | 80 | 1015.3 |
| 20260905213739 | 27 | 24 | 0.0 | 0.0 | 0.00 | 0.00 | 0.00 | 80 | 1015.4 |
| 20260905213500 | 27 | 24 | 0.0 | 0.0 | 0.00 | 0.00 | 0.00 | 80 | 1015.3 |
| 20260905213150 | 27 | 32 | 0.0 | 0.0 | 0.00 | 0.00 | 0.00 | 81 | 1015.3 |
| 20260905212933 | 27 | 45 | 0.0 | 0.0 | 0.00 | 0.00 | 0.00 | 81 | 1015.2 |
| 20260905212749 | 27 | 45 | 0.0 | 0.0 | 0.00 | 0.00 | 0.00 | 81 | 1015.2 |
| 20260905212649 | 27 | 45 | 0.0 | 0.0 | 0.00 | 0.00 | 0.00 | 80 | 1015.2 |
| 20260905212433 | 27 | 44 | 0.0 | 0.0 | 0.00 | 0.00 | 0.00 | 80 | 1015.2 |
| 20260905212348 | 27 | 45 | 0.0 | 0.0 | 0.00 | 0.00 | 0.00 | 80 | 1015.1 |
| 20260905212149 | 27 | 47 | 0.0 | 0.0 | 0.00 | 0.00 | 0.00 | 79 | 1015.1 |
| 20260905212038 | 27 | 44 | 0.0 | 0.0 | 0.00 | 0.00 | 0.00 | 80 | 1015.1 |
| 20260905211934 | 27 | 44 | 0.0 | 0.0 | 0.00 | 0.00 | 0.00 | 80 | 1015.1 |
| 20260905211731 | 27 | 34 | 0.0 | 0.0 | 0.00 | 0.00 | 0.00 | 80 | 1015.1 |
| 20260905211531 | 27 | 25 | 0.0 | 0.0 | 0.00 | 0.00 | 0.00 | 80 | 1015.1 |
| 20260905211431 | 27 | 0 | 0.0 | 0.0 | 0.00 | 0.00 | 0.00 | 79 | 1015.1 |
| 20260905211331 | 27 | 58 | 0.0 | 0.0 | 0.00 | 0.00 | 0.00 | 79 | 1015.1 |
| 20260905211231 | 27 | 42 | 0.0 | 0.0 | 0.00 | 0.00 | 0.00 | 79 | 1015.2 |
| 20260905210931 | 27 | 58 | 0.0 | 0.0 | 0.00 | 0.00 | 0.00 | 79 | 1015.1 |
| 20260905210729 | 27 | 8 | 0.0 | 0.0 | 0.00 | 0.00 | 0.00 | 79 | 1015.1 |
| 20260905210630 | 27 | 48 | 0.0 | 0.0 | 0.00 | 0.00 | 0.00 | 78 | 1015.1 |
| 20260905210449 | 27 | 69 | 0.0 | 0.0 | 0.00 | 0.00 | 0.00 | 78 | 1015.1 |
| 20260905210430 | 27 | 35 | 0.0 | 0.0 | 0.00 | 0.00 | 0.00 | 78 | 1015.1 |
| 20260905210129 | 27 | 45 | 0.0 | 0.0 | 0.00 | 0.00 | 0.00 | 78 | 1015.1 |
| 20260905205934 | 27 | 34 | 0.0 | 0.0 | 0.00 | 0.00 | 0.00 | 77 | 1015.1 |
| 20260905205737 | 27 | 17 | 0.0 | 0.0 | 0.00 | 0.00 | 0.00 | 78 | 1015.1 |
| 20260905205732 | 27 | 59 | 0.0 | 0.0 | 0.00 | 0.00 | 0.00 | 77 | 1015.1 |
| 20260905205723 | 28 | 13 | 0.0 | 0.0 | 0.00 | 0.00 | 0.00 | 78 | 1015.1 |
| 20260905205701 | 27 | 71 | 0.0 | 0.0 | 0.00 | 0.00 | 0.00 | 77 | 1015.1 |
| 20260905205130 | -17 | 8 | 0.0 | 0.0 | 0.00 | 0.00 | 0.00 | 1015.0 | |
| 20260905205040 | -17 | 0.0 | 0.0 | 0.00 | 0.00 | 0.00 | 1015.0 | ||
| 20260905204935 | -17 | 0.0 | 0.0 | 0.00 | 0.00 | 0.00 | 1015.0 | ||
| 20260905204826 | -17 | 0.0 | 0.0 | 0.00 | 0.00 | 0.00 | |||
| 20260905204535 | -17 | 0.0 | 0.0 | 0.00 | 0.00 | 0.00 | |||
| 20260905204335 | -17 | 0.0 | 0.0 | 0.00 | 0.00 | 0.00 | |||
| 20260905204134 | -17 | 0.0 | 0.0 | 0.00 | 0.00 | 0.00 | |||
| 20260905204103 | -17 | 0.0 | 0.0 | 0.00 | 0.00 | 0.00 | |||
| 20260905203938 | -17 | 0.0 | 0.0 | 0.00 | 0.00 | 0.00 | |||
| 20260905203934 | -17 | 0.0 | 0.0 | 0.00 | 0.00 | 0.00 | |||
| 20260905203844 | -17 | 0.0 | 0.0 | 0.00 | 0.00 | 0.00 | |||
| 20260905203507 | -17 | 0.0 | 0.0 | 0.00 | 0.00 | 0.00 | 1015.4 | ||
| 20260905203406 | -17 | 0.0 | 0.0 | 0.00 | 0.00 | 0.00 | 1015.4 | ||
| 20260905203106 | -17 | 28 | 0.0 | 0.0 | 0.00 | 0.00 | 0.00 | 1015.4 | |
| 20260905202852 | 28 | 28 | 0.0 | 11.3 | 0.00 | 0.00 | 0.00 | 78 | 1015.5 |
| 20260905202847 | 28 | 28 | 0.0 | 0.0 | 0.00 | 0.00 | 0.00 | 78 | 1015.4 |
| 20260905202829 | 28 | 28 | 0.0 | 11.3 | 0.00 | 0.00 | 0.00 | 78 | 1015.4 |
| 20260905202431 | 28 | 28 | 0.0 | 11.3 | 0.00 | 0.00 | 0.00 | 78 | 1015.4 |
| 20260905202232 | 28 | 28 | 0.0 | 16.1 | 0.00 | 0.00 | 0.00 | 78 | 1015.3 |
| 20260905202039 | 28 | 66 | 0.0 | 16.1 | 0.00 | 0.00 | 0.00 | 78 | 1015.6 |
| 20260905202004 | 28 | 44 | 0.0 | 16.1 | 0.00 | 0.00 | 0.00 | 78 | 1015.5 |
| 20260905201855 | 28 | 41 | 0.0 | 16.1 | 0.00 | 0.00 | 0.00 | 77 | 1015.6 |
| 20260905201830 | 28 | 31 | 0.0 | 16.1 | 0.00 | 0.00 | 0.00 | 77 | 1015.6 |
| 20260905201820 | 28 | 75 | 0.0 | 16.1 | 0.00 | 0.00 | 0.00 | 77 | 1015.6 |
| 20260905201351 | 28 | 121 | 0.0 | 16.1 | 0.00 | 0.00 | 0.00 | 77 | 1015.6 |
| 20260905201139 | 28 | 61 | 0.0 | 17.7 | 0.00 | 0.00 | 0.00 | 77 | 1015.7 |
| 20260905201052 | 28 | 45 | 0.0 | 17.7 | 0.00 | 0.00 | 0.00 | 77 | 1015.7 |
| 20260905201041 | 28 | 68 | 0.0 | 17.7 | 0.00 | 0.00 | 0.00 | 77 | 1015.7 |
| 20260905200737 | 28 | 61 | 0.0 | 17.7 | 0.00 | 0.00 | 0.00 | 77 | 1015.8 |
| 20260905200537 | 28 | 48 | 0.0 | 17.7 | 0.00 | 0.00 | 0.00 | 78 | 1015.9 |
| 20260905200332 | 28 | 65 | 0.0 | 17.7 | 0.00 | 0.00 | 0.00 | 77 | 1015.9 |
| 20260905200237 | 28 | 89 | 0.0 | 14.5 | 0.00 | 0.00 | 0.00 | 78 | 1016.0 |
| 20260905200100 | 28 | 65 | 0.0 | 14.5 | 0.00 | 0.00 | 0.00 | 77 | 1016.1 |
| 20260905195933 | 28 | 96 | 0.0 | 11.3 | 0.00 | 0.00 | 0.00 | 77 | 1016.2 |
| 20260905195728 | -17 | 44 | 0.0 | 6.4 | 0.00 | 0.00 | 0.00 | 1016.2 | |
| 20260905195634 | -17 | 0.0 | 0.0 | 0.00 | 0.00 | 0.00 | 1016.2 | ||
| 20260905195531 | -17 | 0.0 | 0.0 | 0.00 | 0.00 | 0.00 | 1016.2 | ||
| 20260905195235 | -17 | 0.0 | 0.0 | 0.00 | 0.00 | 0.00 | |||
| 20260905195038 | -17 | 0.0 | 0.0 | 0.00 | 0.00 | 0.00 | |||
| 20260905195003 | -17 | 0.0 | 0.0 | 0.00 | 0.00 | 0.00 | |||
| 20260905194834 | -17 | 0.0 | 0.0 | 0.00 | 0.00 | 0.00 | |||
| 20260905194734 | -17 | 0.0 | 0.0 | 0.00 | 0.00 | 0.00 | |||
| 20260905194407 | -17 | 0.0 | 0.0 | 0.00 | 0.00 | 0.00 | |||
| 20260905194306 | -17 | 0.0 | 0.0 | 0.00 | 0.00 | 0.00 | 1016.5 | ||
| 20260905194010 | -17 | 0.0 | 0.0 | 0.00 | 0.00 | 0.00 | 1016.5 | ||
| 20260905193930 | -17 | 0.0 | 0.0 | 0.00 | 0.00 | 0.00 | 1016.5 | ||
| 20260905193735 | -17 | 0.0 | 0.0 | 0.00 | 0.00 | 0.00 | 1016.5 | ||
| 20260905193535 | 28 | 48 | 0.0 | 6.4 | 0.00 | 0.00 | 0.00 | 78 | 1016.5 |
| 20260905193404 | 28 | 48 | 0.0 | 9.7 | 0.00 | 0.00 | 0.00 | 78 | 1016.5 |
| 20260905193335 | 28 | 48 | 0.0 | 9.7 | 0.00 | 0.00 | 0.00 | 78 | 1016.5 |
| 20260905193231 | 28 | 48 | 0.0 | 9.7 | 0.00 | 0.00 | 0.00 | 78 | 1016.4 |
| 20260905192909 | 28 | 48 | 0.0 | 9.7 | 0.00 | 0.00 | 0.00 | 78 | 1016.4 |
| 20260905192731 | 28 | 41 | 0.0 | 9.7 | 0.00 | 0.00 | 0.00 | 78 | 1016.4 |
| 20260905192438 | 28 | 21 | 0.0 | 6.4 | 0.00 | 0.00 | 0.00 | 79 | 1016.5 |
| 20260905192400 | 28 | 61 | 0.0 | 6.4 | 0.00 | 0.00 | 0.00 | 79 | 1016.5 |
| 20260905192235 | 28 | 51 | 0.0 | 6.4 | 0.00 | 0.00 | 0.00 | 81 | 1016.5 |
| 20260905192151 | 28 | 47 | 0.0 | 6.4 | 0.00 | 0.00 | 0.00 | 81 | 1016.6 |
| 20260905192137 | 28 | 25 | 0.0 | 6.4 | 0.00 | 0.00 | 0.00 | 81 | 1016.6 |
| 20260905191834 | 28 | 59 | 0.0 | 6.4 | 0.00 | 0.00 | 0.00 | 81 | 1016.6 |
| 20260905191727 | 27 | 25 | 0.0 | 0.0 | 0.00 | 0.00 | 0.00 | 81 | 1016.6 |
| 20260905191430 | 27 | 25 | 0.0 | 0.0 | 0.00 | 0.00 | 0.00 | 81 | 1016.7 |
| 20260905191405 | 27 | 25 | 0.0 | 0.0 | 0.00 | 0.00 | 0.00 | 81 | 1016.8 |
| 20260905191310 | 27 | 27 | 0.0 | 0.0 | 0.00 | 0.00 | 0.00 | 81 | 1016.9 |
| 20260905191122 | 27 | 158 | 0.0 | 0.0 | 0.00 | 0.00 | 0.00 | 81 | 1016.8 |
| 20260905191106 | 27 | 158 | 0.0 | 0.0 | 0.00 | 0.00 | 0.00 | 81 | 1016.8 |
| 20260905190733 | 27 | 161 | 0.0 | 0.0 | 0.00 | 0.00 | 0.00 | 82 | 1016.9 |
| 20260905190534 | 27 | 39 | 0.0 | 0.0 | 0.00 | 0.00 | 0.00 | 82 | 1016.9 |
| 20260905190333 | 27 | 37 | 0.0 | 0.0 | 0.00 | 0.00 | 0.00 | 81 | 1016.9 |
| 20260905190135 | 27 | 37 | 0.0 | 6.4 | 0.00 | 0.00 | 0.00 | 83 | 1017.0 |
| 20260905190118 | 27 | 44 | 0.0 | 6.4 | 0.00 | 0.00 | 0.00 | 82 | 1017.0 |
| 20260905190058 | 27 | 44 | 0.0 | 6.4 | 0.00 | 0.00 | 0.00 | 82 | 1017.1 |
| 20260905185730 | 27 | 45 | 0.0 | 6.4 | 0.00 | 0.00 | 0.00 | 82 | 1017.0 |
| 20260905185623 | 27 | 45 | 0.0 | 6.4 | 0.00 | 0.00 | 0.00 | 82 | 1017.1 |
| 20260905185422 | 27 | 47 | 0.0 | 6.4 | 0.00 | 0.00 | 0.00 | 82 | 1017.0 |
| 20260905185331 | 27 | 47 | 0.0 | 6.4 | 0.00 | 0.00 | 0.00 | 82 | 1017.0 |
| 20260905185126 | 27 | 32 | 0.0 | 4.8 | 0.00 | 0.00 | 0.00 | 82 | 1017.1 |
| 20260905184927 | 27 | 35 | 0.0 | 3.2 | 0.00 | 0.00 | 0.00 | 83 | 1017.0 |
| 20260905184831 | 27 | 45 | 0.0 | 3.2 | 0.00 | 0.00 | 0.00 | 83 | 1017.0 |
| 20260905184726 | 27 | 45 | 0.0 | 3.2 | 0.00 | 0.00 | 0.00 | 83 | 1017.0 |
| 20260905184528 | -17 | 44 | 0.0 | 3.2 | 0.00 | 0.00 | 0.00 | 1017.0 | |
| 20260905184330 | -17 | 0.0 | 0.0 | 0.00 | 0.00 | 0.00 | 1017.0 | ||
| 20260905184214 | -17 | 0.0 | 0.0 | 0.00 | 0.00 | 0.00 | |||
| 20260905184106 | -17 | 0.0 | 0.0 | 0.00 | 0.00 | 0.00 | |||
| 20260905184009 | -17 | 0.0 | 0.0 | 0.00 | 0.00 | 0.00 | |||
| 20260905183636 | -17 | 0.0 | 0.0 | 0.00 | 0.00 | 0.00 | |||
| 20260905183603 | -17 | 0.0 | 0.0 | 0.00 | 0.00 | 0.00 | |||
| 20260905183434 | -17 | 0.0 | 0.0 | 0.00 | 0.00 | 0.00 | |||
| 20260905183234 | -17 | 0.0 | 0.0 | 0.00 | 0.00 | 0.00 | |||
| 20260905183102 | -17 | 0.0 | 0.0 | 0.00 | 0.00 | 0.00 | |||
| 20260905183035 | -17 | 0.0 | 0.0 | 0.00 | 0.00 | 0.00 | |||
| 20260905182807 | -17 | 0.0 | 0.0 | 0.00 | 0.00 | 0.00 | 1017.1 | ||
| 20260905182709 | -17 | 0.0 | 0.0 | 0.00 | 0.00 | 0.00 | 1017.1 | ||
| 20260905182531 | -17 | 0.0 | 0.0 | 0.00 | 0.00 | 0.00 | 1017.1 | ||
| 20260905182507 | 26 | 216 | 0.0 | 0.0 | 0.00 | 0.00 | 0.00 | 84 | 1017.1 |
| 20260905182136 | 26 | 216 | 0.0 | 1.6 | 0.00 | 0.00 | 0.00 | 84 | 1017.1 |
| 20260905182030 | 26 | 216 | 0.0 | 3.2 | 0.00 | 0.00 | 0.00 | 84 | 1017.1 |
| 20260905181925 | 26 | 216 | 0.0 | 3.2 | 0.00 | 0.00 | 0.00 | 84 | 1017.1 |
| 20260905181726 | 26 | 216 | 0.0 | 3.2 | 0.00 | 0.00 | 0.00 | 84 | 1017.1 |
| 20260905181527 | 26 | 216 | 0.0 | 3.2 | 0.00 | 0.00 | 0.00 | 84 | 1017.1 |
| 20260905181325 | 26 | 217 | 0.0 | 3.2 | 0.00 | 0.00 | 0.00 | 82 | 1017.1 |
| 20260905181141 | 26 | 227 | 0.0 | 4.8 | 0.00 | 0.00 | 0.00 | 84 | 1017.2 |
| 20260905181125 | 26 | 217 | 0.0 | 3.2 | 0.00 | 0.00 | 0.00 | 82 | 1017.2 |
| 20260905181026 | 26 | 216 | 0.0 | 4.8 | 0.00 | 0.00 | 0.00 | 84 | 1017.2 |
| 20260905180726 | 26 | 305 | 0.0 | 6.4 | 0.00 | 0.00 | 0.00 | 86 | 1017.3 |
| 20260905180529 | 26 | 305 | 0.0 | 6.4 | 0.00 | 0.00 | 0.00 | 86 | 1017.2 |
| 20260905180325 | 26 | 305 | 0.0 | 6.4 | 0.00 | 0.00 | 0.00 | 86 | 1017.2 |
| 20260905180125 | 25 | 44 | 0.0 | 6.4 | 0.00 | 0.00 | 0.00 | 86 | 1017.2 |
| 20260905180030 | 25 | 178 | 0.0 | 4.8 | 0.00 | 0.00 | 0.00 | 86 | 1017.2 |
| 20260905175925 | 25 | 178 | 0.0 | 4.8 | 0.00 | 0.00 | 0.00 | 86 | 1017.2 |
| 20260905175731 | -17 | 0.0 | 0.0 | 0.00 | 0.00 | 0.00 | 1017.4 | ||
| 20260905175724 | 25 | 171 | 0.0 | 4.8 | 0.00 | 0.00 | 0.00 | 85 | 1017.3 |
| 20260905175526 | -17 | 0.0 | 0.0 | 0.00 | 0.00 | 0.00 | 1017.4 | ||
| 20260905175307 | -17 | 0.0 | 0.0 | 0.00 | 0.00 | 0.00 | |||
| 20260905175038 | -17 | 0.0 | 0.0 | 0.00 | 0.00 | 0.00 | |||
| 20260905175003 | -17 | 0.0 | 0.0 | 0.00 | 0.00 | 0.00 | |||
| 20260905174835 | -17 | 0.0 | 0.0 | 0.00 | 0.00 | 0.00 | |||
| 20260905174635 | -17 | 0.0 | 0.0 | 0.00 | 0.00 | 0.00 | |||
| 20260905174502 | -17 | 0.0 | 0.0 | 0.00 | 0.00 | 0.00 | |||
| 20260905174434 | -17 | 0.0 | 0.0 | 0.00 | 0.00 | 0.00 | |||
| 20260905174207 | -17 | 0.0 | 0.0 | 0.00 | 0.00 | 0.00 | 1017.7 | ||
| 20260905174010 | -17 | 0.0 | 0.0 | 0.00 | 0.00 | 0.00 | 1017.7 | ||
| 20260905173932 | -17 | 0.0 | 0.0 | 0.00 | 0.00 | 0.00 | 1017.7 | ||
| 20260905173905 | -17 | 0.0 | 0.0 | 0.00 | 0.00 | 0.00 | 1017.7 | ||
| 20260905173607 | 24 | 20 | 0.0 | 0.0 | 0.00 | 0.00 | 0.00 | 91 | 1017.7 |
| 20260905173447 | 24 | 20 | 0.0 | 0.0 | 0.00 | 0.00 | 0.00 | 91 | 1017.7 |
| 20260905173438 | 24 | 20 | 0.0 | 0.0 | 0.00 | 0.00 | 0.00 | 91 | 1017.7 |
| 20260905173135 | 24 | 20 | 0.0 | 0.0 | 0.00 | 0.00 | 0.00 | 91 | 1017.8 |
| 20260905172920 | 24 | 20 | 0.0 | 0.0 | 0.00 | 0.00 | 0.00 | 91 | 1017.8 |
| 20260905172735 | 24 | 20 | 0.0 | 0.0 | 0.00 | 0.00 | 0.00 | 91 | 1017.8 |
| 20260905172532 | 24 | 14 | 0.0 | 3.2 | 0.00 | 0.00 | 0.00 | 91 | 1017.9 |
| 20260905172433 | 24 | 47 | 0.0 | 3.2 | 0.00 | 0.00 | 0.00 | 91 | 1017.9 |
| 20260905172412 | 24 | 41 | 0.0 | 3.2 | 0.00 | 0.00 | 0.00 | 91 | 1017.9 |
| 20260905172130 | 24 | 49 | 0.0 | 4.8 | 0.00 | 0.00 | 0.00 | 91 | 1018.0 |
| 20260905172027 | 24 | 52 | 0.0 | 4.8 | 0.00 | 0.00 | 0.00 | 92 | 1018.0 |
| 20260905171911 | 24 | 41 | 0.0 | 4.8 | 0.00 | 0.00 | 0.00 | 92 | 1017.9 |
| 20260905171727 | 24 | 37 | 0.0 | 4.8 | 0.00 | 0.00 | 0.00 | 91 | 1017.9 |
| 20260905171527 | 23 | 35 | 0.0 | 4.8 | 0.00 | 0.00 | 0.00 | 92 | 1018.0 |
| 20260905171413 | 23 | 34 | 0.0 | 8.0 | 0.00 | 0.00 | 0.00 | 92 | 1018.0 |
| 20260905171323 | 23 | 35 | 0.0 | 8.0 | 0.00 | 0.00 | 0.00 | 92 | 1018.0 |
| 20260905171122 | 23 | 32 | 0.0 | 8.0 | 0.00 | 0.00 | 0.00 | 92 | 1018.0 |
| 20260905171028 | 23 | 34 | 0.0 | 8.0 | 0.00 | 0.00 | 0.00 | 92 | 1018.0 |
| 20260905170909 | 23 | 34 | 0.0 | 8.0 | 0.00 | 0.00 | 0.00 | 92 | 1018.0 |
| 20260905170721 | 23 | 35 | 0.0 | 8.0 | 0.00 | 0.00 | 0.00 | 92 | 1018.0 |
| 20260905170621 | 23 | 35 | 0.0 | 8.0 | 0.00 | 0.00 | 0.00 | 92 | 1018.0 |
| 20260905170407 | 23 | 13 | 0.0 | 6.4 | 0.00 | 0.00 | 0.00 | 92 | 1018.1 |
| 20260905170320 | 23 | 11 | 0.0 | 6.4 | 0.00 | 0.00 | 0.00 | 92 | 1018.1 |
| 20260905170120 | 23 | 7 | 0.0 | 6.4 | 0.00 | 0.00 | 0.00 | 93 | 1018.1 |
| 20260905165923 | 23 | 68 | 0.0 | 4.8 | 0.00 | 0.00 | 0.00 | 93 | 1018.2 |
| 20260905165907 | 23 | 66 | 0.0 | 4.8 | 0.00 | 0.00 | 0.00 | 93 | 1018.2 |
| 20260905165721 | 23 | 20 | 0.0 | 1.6 | 0.00 | 0.00 | 0.00 | 93 | 1018.1 |
| 20260905165513 | 23 | 48 | 0.0 | 0.0 | 0.00 | 0.00 | 0.00 | 94 | 1018.1 |
| 20260905165406 | 23 | 47 | 0.0 | 0.0 | 0.00 | 0.00 | 0.00 | 94 | 1018.1 |
| 20260905165312 | 23 | 45 | 0.0 | 0.0 | 0.00 | 0.00 | 0.00 | 94 | 1018.1 |
| 20260905165201 | 23 | 34 | 0.0 | 0.0 | 0.00 | 0.00 | 0.00 | 94 | 1018.1 |
| 20260905164910 | -17 | 0.0 | 0.0 | 0.00 | 0.00 | 0.00 | 1018.1 | ||
| 20260905164737 | -17 | 0.0 | 0.0 | 0.00 | 0.00 | 0.00 | |||
| 20260905164635 | -17 | 0.0 | 0.0 | 0.00 | 0.00 | 0.00 | |||
| 20260905164407 | -17 | 0.0 | 0.0 | 0.00 | 0.00 | 0.00 | |||
| 20260905164206 | -17 | 0.0 | 0.0 | 0.00 | 0.00 | 0.00 | |||
| 20260905164107 | -17 | 0.0 | 0.0 | 0.00 | 0.00 | 0.00 | |||
| 20260905164006 | -17 | 0.0 | 0.0 | 0.00 | 0.00 | 0.00 | |||
| 20260905163735 | -17 | 0.0 | 0.0 | 0.00 | 0.00 | 0.00 | |||
| 20260905163637 | -17 | 0.0 | 0.0 | 0.00 | 0.00 | 0.00 | 1018.1 | ||
| 20260905163606 | -17 | 0.0 | 0.0 | 0.00 | 0.00 | 0.00 | 1018.1 | ||
| 20260905163334 | -17 | 0.0 | 0.0 | 0.00 | 0.00 | 0.00 | 1018.1 | ||
| 20260905163235 | -17 | 0.0 | 0.0 | 0.00 | 0.00 | 0.00 | 1018.1 | ||
| 20260905163106 | -17 | 0.0 | 0.0 | 0.00 | 0.00 | 0.00 | 1018.1 | ||
| 20260905162907 | 22 | 37 | 0.0 | 0.0 | 0.00 | 0.00 | 0.00 | 96 | 1018.1 |
| 20260905162651 | 22 | 37 | 0.0 | 0.0 | 0.00 | 0.00 | 0.00 | 96 | 1018.1 |
| 20260905162553 | 22 | 37 | 0.0 | 0.0 | 0.00 | 0.00 | 0.00 | 96 | 1018.1 |
| 20260905162451 | 22 | 37 | 0.0 | 0.0 | 0.00 | 0.00 | 0.00 | 96 | 1018.2 |
| 20260905162232 | 22 | 37 | 0.0 | 0.0 | 0.00 | 0.00 | 0.00 | 96 | 1018.0 |
| 20260905162134 | 22 | 38 | 0.0 | 0.0 | 0.00 | 0.00 | 0.00 | 96 | 1018.0 |
| 20260905162032 | 22 | 38 | 0.0 | 0.0 | 0.00 | 0.00 | 0.00 | 96 | 1018.0 |
| 20260905161831 | 22 | 41 | 0.0 | 0.0 | 0.00 | 0.00 | 0.00 | 96 | 1017.9 |
| 20260905161630 | 22 | 75 | 0.0 | 0.0 | 0.00 | 0.00 | 0.00 | 97 | 1017.8 |
| 20260905161542 | 22 | 63 | 0.0 | 0.0 | 0.00 | 0.00 | 0.00 | 97 | 1017.7 |
| 20260905161530 | 22 | 21 | 0.0 | 0.0 | 0.00 | 0.00 | 0.00 | 97 | 1017.8 |
| 20260905161230 | 22 | 61 | 0.0 | 0.0 | 0.00 | 0.00 | 0.00 | 97 | 1017.8 |
| 20260905161044 | 22 | 61 | 0.0 | 0.0 | 0.00 | 0.00 | 0.00 | 97 | 1017.7 |
| 20260905160834 | 22 | 3 | 0.0 | 0.0 | 0.00 | 0.00 | 0.00 | 97 | 1017.7 |
| 20260905160633 | 22 | 0 | 0.0 | 0.0 | 0.00 | 0.00 | 0.00 | 97 | 1017.7 |
| 20260905160608 | 22 | 54 | 0.0 | 0.0 | 0.00 | 0.00 | 0.00 | 97 | 1017.7 |
| 20260905160554 | 22 | 54 | 0.0 | 0.0 | 0.00 | 0.00 | 0.00 | 97 | 1017.8 |
| 20260905160207 | 22 | 47 | 0.0 | 0.0 | 0.00 | 0.00 | 0.00 | 97 | 1017.8 |
| 20260905160116 | 22 | 41 | 0.0 | 0.0 | 0.00 | 0.00 | 0.00 | 98 | 1017.7 |
| 20260905160013 | 22 | 41 | 0.0 | 0.0 | 0.00 | 0.00 | 0.00 | 98 | 1017.7 |
| 20260905155806 | 22 | 41 | 0.0 | 0.0 | 0.00 | 0.00 | 0.00 | 98 | 1017.7 |
| 20260905155549 | 22 | 41 | 0.0 | 0.0 | 0.00 | 0.00 | 0.00 | 98 | 1017.7 |
| 20260905155454 | 22 | 44 | 0.0 | 0.0 | 0.00 | 0.00 | 0.00 | 98 | 1017.7 |
| 20260905155349 | 22 | 42 | 0.0 | 0.0 | 0.00 | 0.00 | 0.00 | 98 | 1017.7 |
| 20260905155241 | -17 | 0.0 | 0.0 | 0.00 | 0.00 | 0.00 | 1017.7 | ||
| 20260905155228 | 22 | 45 | 0.0 | 0.0 | 0.00 | 0.00 | 0.00 | 98 | 1017.7 |
| 20260905154631 | -17 | 0.0 | 0.0 | 0.00 | 0.00 | 0.00 | |||
| 20260905154500 | -17 | 0.0 | 0.0 | 0.00 | 0.00 | 0.00 | |||
| 20260905154334 | -17 | 0.0 | 0.0 | 0.00 | 0.00 | 0.00 | |||
| 20260905154203 | -17 | 0.0 | 0.0 | 0.00 | 0.00 | 0.00 | |||
| 20260905154110 | -17 | 0.0 | 0.0 | 0.00 | 0.00 | 0.00 | |||
| 20260905154100 | -17 | 0.0 | 0.0 | 0.00 | 0.00 | 0.00 | |||
| 20260905153804 | -17 | 0.0 | 0.0 | 0.00 | 0.00 | 0.00 | |||
| 20260905153631 | -17 | 0.0 | 0.0 | 0.00 | 0.00 | 0.00 | 1017.9 | ||
| 20260905153307 | -17 | 0.0 | 0.0 | 0.00 | 0.00 | 0.00 | 1017.9 | ||
| 20260905153132 | -17 | 0.0 | 0.0 | 0.00 | 0.00 | 0.00 | 1017.9 | ||
| 20260905153046 | 21 | 35 | 0.0 | 0.0 | 0.00 | 0.00 | 0.00 | 98 | 1017.9 |
| 20260905153034 | 21 | 35 | 0.0 | 0.0 | 0.00 | 0.00 | 0.00 | 98 | 1017.9 |
| 20260905152704 | 21 | 35 | 0.0 | 0.0 | 0.00 | 0.00 | 0.00 | 98 | 1017.9 |
| 20260905152505 | 21 | 35 | 0.0 | 0.0 | 0.00 | 0.00 | 0.00 | 98 | 1017.9 |
| 20260905152406 | 21 | 35 | 0.0 | 0.0 | 0.00 | 0.00 | 0.00 | 98 | 1017.8 |
| 20260905152259 | 21 | 35 | 0.0 | 0.0 | 0.00 | 0.00 | 0.00 | 98 | 1017.8 |
| 20260905152204 | 21 | 35 | 0.0 | 6.4 | 0.00 | 0.00 | 0.00 | 98 | 1017.7 |
| 20260905151901 | 21 | 35 | 0.0 | 6.4 | 0.00 | 0.00 | 0.00 | 98 | 1017.8 |
| 20260905151801 | 21 | 35 | 0.0 | 6.4 | 0.00 | 0.00 | 0.00 | 98 | 1017.7 |
| 20260905151701 | 21 | 35 | 0.0 | 6.4 | 0.00 | 0.00 | 0.00 | 98 | 1017.7 |
| 20260905151502 | 21 | 35 | 0.0 | 6.4 | 0.00 | 0.00 | 0.00 | 98 | 1017.7 |
| 20260905151302 | 21 | 38 | 0.0 | 6.4 | 0.00 | 0.00 | 0.00 | 98 | 1017.6 |
| 20260905151146 | -17 | 27 | 0.0 | 3.2 | 0.00 | 0.00 | 0.00 | 1017.4 | |
| 20260905151101 | 21 | 25 | 0.0 | 3.2 | 0.00 | 0.00 | 0.00 | 98 | 1017.6 |
| 20260905151047 | -17 | 27 | 0.0 | 3.2 | 0.00 | 0.00 | 0.00 | 1017.5 | |
| 20260905151026 | -17 | 27 | 0.0 | 3.2 | 0.00 | 0.00 | 0.00 | 1017.5 | |
| 20260905150500 | -17 | 27 | 0.0 | 0.0 | 0.00 | 0.00 | 0.00 | 1017.4 | |
| 20260905150301 | -17 | 0.0 | 0.0 | 0.00 | 0.00 | 0.00 | 1017.4 | ||
| 20260905150201 | -17 | 0.0 | 0.0 | 0.00 | 0.00 | 0.00 | |||
| 20260905150157 | -17 | 0.0 | 0.0 | 0.00 | 0.00 | 0.00 | |||
| 20260905145835 | -17 | 0.0 | 0.0 | 0.00 | 0.00 | 0.00 | |||
| 20260905145611 | -17 | 0.0 | 0.0 | 0.00 | 0.00 | 0.00 | |||
| 20260905145406 | -17 | 0.0 | 0.0 | 0.00 | 0.00 | 0.00 | |||
| 20260905145206 | -17 | 0.0 | 0.0 | 0.00 | 0.00 | 0.00 | |||
| 20260905145126 | -17 | 0.0 | 0.0 | 0.00 | 0.00 | 0.00 | |||
| 20260905144833 | -17 | 0.0 | 0.0 | 0.00 | 0.00 | 0.00 | 1017.1 | ||
| 20260905144538 | -17 | 0.0 | 0.0 | 0.00 | 0.00 | 0.00 | 1017.1 | ||
| 20260905144436 | 21 | 61 | 0.0 | 0.0 | 0.00 | 0.00 | 0.00 | 98 | 1017.1 |
| 20260905144403 | 21 | 61 | 0.0 | 0.0 | 0.00 | 0.00 | 0.00 | 98 | 1017.1 |
| 20260905144119 | 21 | 61 | 0.0 | 0.0 | 0.00 | 0.00 | 0.00 | 98 | 1017.1 |
| 20260905144114 | 21 | 61 | 0.0 | 0.0 | 0.00 | 0.00 | 0.00 | 98 | 1017.1 |
| 20260905144049 | 21 | 61 | 0.0 | 0.0 | 0.00 | 0.00 | 0.00 | 98 | 1017.1 |
| 20260905143636 | 21 | 61 | 0.0 | 0.0 | 0.00 | 0.00 | 0.00 | 98 | 1017.2 |
| 20260905143437 | 21 | 61 | 0.0 | 0.0 | 0.00 | 0.00 | 0.00 | 98 | 1017.2 |
| 20260905143345 | 21 | 59 | 0.0 | 0.0 | 0.00 | 0.00 | 0.00 | 98 | 1017.2 |
| 20260905143336 | 21 | 59 | 0.0 | 0.0 | 0.00 | 0.00 | 0.00 | 98 | 1017.2 |
| 20260905143131 | 21 | 42 | 0.0 | 0.0 | 0.00 | 0.00 | 0.00 | 98 | 1017.1 |
| 20260905143120 | 21 | 68 | 0.0 | 0.0 | 0.00 | 0.00 | 0.00 | 98 | 1017.2 |
| 20260905142636 | 21 | 28 | 0.0 | 0.0 | 0.00 | 0.00 | 0.00 | 98 | 1017.1 |
| 20260905142437 | 21 | 47 | 0.0 | 0.0 | 0.00 | 0.00 | 0.00 | 98 | 1017.2 |
| 20260905142337 | 21 | 48 | 0.0 | 0.0 | 0.00 | 0.00 | 0.00 | 98 | 1017.1 |
| 20260905142236 | 21 | 14 | 0.0 | 0.0 | 0.00 | 0.00 | 0.00 | 98 | 1017.1 |
| 20260905142123 | 21 | 56 | 0.0 | 0.0 | 0.00 | 0.00 | 0.00 | 98 | 1017.1 |
| 20260905142114 | 21 | 41 | 0.0 | 0.0 | 0.00 | 0.00 | 0.00 | 98 | 1017.1 |
| 20260905141636 | 21 | 44 | 0.0 | 0.0 | 0.00 | 0.00 | 0.00 | 98 | 1017.1 |
| 20260905141439 | 21 | 44 | 0.0 | 0.0 | 0.00 | 0.00 | 0.00 | 98 | 1017.2 |
| 20260905141342 | 21 | 45 | 0.0 | 0.0 | 0.00 | 0.00 | 0.00 | 98 | 1017.2 |
| 20260905141333 | 21 | 45 | 0.0 | 0.0 | 0.00 | 0.00 | 0.00 | 98 | 1017.2 |
| 20260905141130 | 21 | 39 | 0.0 | 0.0 | 0.00 | 0.00 | 0.00 | 98 | 1017.2 |
| 20260905141116 | 21 | 41 | 0.0 | 0.0 | 0.00 | 0.00 | 0.00 | 98 | 1017.2 |
| 20260905140631 | 21 | 35 | 0.0 | 0.0 | 0.00 | 0.00 | 0.00 | 98 | 1017.2 |
| 20260905140435 | 21 | 35 | 0.0 | 0.0 | 0.00 | 0.00 | 0.00 | 98 | 1017.2 |
| 20260905140334 | 21 | 35 | 0.0 | 0.0 | 0.00 | 0.00 | 0.00 | 98 | 1017.2 |
| 20260905140230 | 21 | 37 | 0.0 | 0.0 | 0.00 | 0.00 | 0.00 | 98 | 1017.1 |
| 20260905140030 | 21 | 35 | 0.0 | 0.0 | 0.00 | 0.00 | 0.00 | 98 | 1017.2 |
| 20260905135935 | 21 | 44 | 0.0 | 0.0 | 0.00 | 0.00 | 0.00 | 98 | 1017.1 |
| 20260905135834 | 21 | 44 | 0.0 | 0.0 | 0.00 | 0.00 | 0.00 | 98 | 1017.1 |
| 20260905135633 | 21 | 34 | 0.0 | 0.0 | 0.00 | 0.00 | 0.00 | 98 | 1017.1 |
| 20260905135537 | 21 | 34 | 0.0 | 0.0 | 0.00 | 0.00 | 0.00 | 98 | 1017.2 |
| 20260905135332 | 21 | 34 | 0.0 | 0.0 | 0.00 | 0.00 | 0.00 | 98 | 1017.2 |
| 20260905135232 | 21 | 34 | 0.0 | 0.0 | 0.00 | 0.00 | 0.00 | 98 | 1017.2 |
| 20260905135033 | 21 | 32 | 0.0 | 0.0 | 0.00 | 0.00 | 0.00 | 98 | 1017.2 |
| 20260905134832 | 21 | 32 | 0.0 | 0.0 | 0.00 | 0.00 | 0.00 | 98 | 1017.2 |
| 20260905134606 | 21 | 34 | 0.0 | 0.0 | 0.00 | 0.00 | 0.00 | 98 | 1017.2 |
| 20260905134506 | 21 | 34 | 0.0 | 0.0 | 0.00 | 0.00 | 0.00 | 98 | 1017.2 |
| 20260905134304 | 21 | 34 | 0.0 | 0.0 | 0.00 | 0.00 | 0.00 | 98 | 1017.2 |
| 20260905134150 | 21 | 35 | 0.0 | 0.0 | 0.00 | 0.00 | 0.00 | 98 | 1017.3 |
| 20260905134049 | 21 | 34 | 0.0 | 0.0 | 0.00 | 0.00 | 0.00 | 98 | 1017.3 |
| 20260905133746 | 21 | 34 | 0.0 | 0.0 | 0.00 | 0.00 | 0.00 | 98 | 1017.3 |
| 20260905133544 | 21 | 34 | 0.0 | 0.0 | 0.00 | 0.00 | 0.00 | 98 | 1017.2 |
| 20260905133439 | 20 | 34 | 0.0 | 0.0 | 0.00 | 0.00 | 0.00 | 98 | 1017.2 |
| 20260905133244 | 20 | 34 | 0.0 | 0.0 | 0.00 | 0.00 | 0.00 | 98 | 1017.2 |
| 20260905133144 | 21 | 34 | 0.0 | 0.0 | 0.00 | 0.00 | 0.00 | 98 | 1017.2 |
| 20260905133039 | 21 | 34 | 0.0 | 0.0 | 0.00 | 0.00 | 0.00 | 98 | 1017.2 |
| 20260905132755 | 20 | 32 | 0.0 | 0.0 | 0.00 | 0.00 | 0.00 | 98 | 1017.2 |
| 20260905132749 | 20 | 34 | 0.0 | 0.0 | 0.00 | 0.00 | 0.00 | 98 | 1017.2 |
| 20260905132542 | 20 | 34 | 0.0 | 0.0 | 0.00 | 0.00 | 0.00 | 98 | 1017.1 |
| 20260905132342 | 20 | 34 | 0.0 | 0.0 | 0.00 | 0.00 | 0.00 | 98 | 1017.2 |
| 20260905132243 | 20 | 35 | 0.0 | 0.0 | 0.00 | 0.00 | 0.00 | 98 | 1017.1 |
| 20260905132137 | 20 | 34 | 0.0 | 0.0 | 0.00 | 0.00 | 0.00 | 98 | 1017.0 |
| 20260905132037 | 20 | 32 | 0.0 | 0.0 | 0.00 | 0.00 | 0.00 | 98 | 1017.0 |
| 20260905131751 | 20 | 34 | 0.0 | 0.0 | 0.00 | 0.00 | 0.00 | 98 | 1017.0 |
| 20260905131636 | 20 | 34 | 0.0 | 0.0 | 0.00 | 0.00 | 0.00 | 98 | 1017.0 |
| 20260905131333 | 20 | 35 | 0.0 | 0.0 | 0.00 | 0.00 | 0.00 | 98 | 1017.0 |
| 20260905131249 | 20 | 34 | 0.0 | 0.0 | 0.00 | 0.00 | 0.00 | 98 | 1017.0 |
| 20260905131131 | 20 | 34 | 0.0 | 0.0 | 0.00 | 0.00 | 0.00 | 98 | 1017.0 |
| 20260905130933 | 20 | 35 | 0.0 | 0.0 | 0.00 | 0.00 | 0.00 | 98 | 1017.0 |
| 20260905130745 | 20 | 35 | 0.0 | 0.0 | 0.00 | 0.00 | 0.00 | 98 | 1017.0 |
| 20260905130732 | 20 | 35 | 0.0 | 0.0 | 0.00 | 0.00 | 0.00 | 98 | 1016.9 |
| 20260905130610 | 20 | 35 | 0.0 | 0.0 | 0.00 | 0.00 | 0.00 | 98 | 1016.9 |
| 20260905130315 | 20 | 34 | 0.0 | 0.0 | 0.00 | 0.00 | 0.00 | 98 | 1016.9 |
| 20260905130249 | 20 | 35 | 0.0 | 0.0 | 0.00 | 0.00 | 0.00 | 98 | 1016.9 |
| 20260905130202 | 20 | 34 | 0.0 | 0.0 | 0.00 | 0.00 | 0.00 | 98 | 1016.8 |
| 20260905125904 | 20 | 34 | 0.0 | 0.0 | 0.00 | 0.00 | 0.00 | 98 | 1016.7 |
| 20260905125735 | 20 | 35 | 0.0 | 0.0 | 0.00 | 0.00 | 0.00 | 98 | 1016.7 |
| 20260905125637 | 20 | 34 | 0.0 | 0.0 | 0.00 | 0.00 | 0.00 | 98 | 1016.7 |
| 20260905125437 | 20 | 34 | 0.0 | 0.0 | 0.00 | 0.00 | 0.00 | 98 | 1016.7 |
| 20260905125234 | 20 | 34 | 0.0 | 3.2 | 0.00 | 0.00 | 0.00 | 98 | 1016.6 |
| 20260905125035 | 20 | 34 | 0.0 | 3.2 | 0.00 | 0.00 | 0.00 | 98 | 1016.5 |
| 20260905124936 | 20 | 34 | 0.0 | 3.2 | 0.00 | 0.00 | 0.00 | 98 | 1016.3 |
| 20260905124733 | 20 | 34 | 0.0 | 3.2 | 0.00 | 0.00 | 0.00 | 98 | 1016.3 |
| 20260905124630 | 20 | 32 | 0.0 | 3.2 | 0.00 | 0.00 | 0.00 | 98 | 1016.2 |
| 20260905124527 | 20 | 34 | 0.0 | 4.8 | 0.00 | 0.00 | 0.00 | 98 | 1016.1 |
| 20260905124230 | 20 | 34 | 0.0 | 4.8 | 0.00 | 0.00 | 0.00 | 98 | 1016.0 |
| 20260905124030 | 20 | 34 | 0.0 | 4.8 | 0.00 | 0.00 | 0.00 | 98 | 1015.9 |
| 20260905123831 | 20 | 34 | 0.0 | 4.8 | 0.00 | 0.00 | 0.00 | 98 | 1015.9 |
| 20260905123748 | 20 | 34 | 0.0 | 4.8 | 0.00 | 0.00 | 0.00 | 98 | 1015.9 |
| 20260905123633 | 20 | 34 | 0.0 | 4.8 | 0.00 | 0.00 | 0.00 | 98 | 1015.8 |
| 20260905123528 | 20 | 52 | 0.0 | 3.2 | 0.00 | 0.00 | 0.00 | 98 | 1015.8 |
| 20260905123235 | 20 | 52 | 0.0 | 3.2 | 0.00 | 0.00 | 0.00 | 98 | 1015.7 |
| 20260905123131 | 20 | 52 | 0.0 | 3.2 | 0.00 | 0.00 | 0.00 | 98 | 1015.6 |
| 20260905122833 | 20 | 52 | 0.0 | 3.2 | 0.00 | 0.00 | 0.00 | 98 | 1015.6 |
| 20260905122737 | 20 | 52 | 0.0 | 3.2 | 0.00 | 0.00 | 0.00 | 98 | 1015.6 |
| 20260905122633 | 20 | 52 | 0.0 | 3.2 | 0.00 | 0.00 | 0.00 | 98 | 1015.5 |
| 20260905122434 | 20 | 52 | 0.0 | 1.6 | 0.00 | 0.00 | 0.00 | 98 | 1015.7 |
| 20260905122234 | -17 | 0.0 | 0.0 | 0.00 | 0.00 | 0.00 | 1015.7 | ||
| 20260905121938 | -17 | 0.0 | 0.0 | 0.00 | 0.00 | 0.00 | |||
| 20260905121702 | -17 | 0.0 | 0.0 | 0.00 | 0.00 | 0.00 | |||
| 20260905121607 | -17 | 0.0 | 0.0 | 0.00 | 0.00 | 0.00 | |||
| 20260905121407 | -17 | 0.0 | 0.0 | 0.00 | 0.00 | 0.00 | |||
| 20260905121206 | -17 | 0.0 | 0.0 | 0.00 | 0.00 | 0.00 | |||
| 20260905121007 | -17 | 0.0 | 0.0 | 0.00 | 0.00 | 0.00 | |||
| 20260905120936 | -17 | 0.0 | 0.0 | 0.00 | 0.00 | 0.00 | 1016.2 | ||
| 20260905120634 | -17 | 0.0 | 0.0 | 0.00 | 0.00 | 0.00 | 1016.2 | ||
| 20260905120535 | -17 | 0.0 | 0.0 | 0.00 | 0.00 | 0.00 | 1016.2 | ||
| 20260905120335 | 20 | 45 | 0.0 | 0.0 | 0.00 | 0.00 | 0.00 | 97 | 1016.2 |
| 20260905120136 | 20 | 45 | 0.0 | 0.0 | 0.00 | 0.00 | 0.00 | 97 | 1016.2 |
| 20260905115907 | 20 | 45 | 0.0 | 0.0 | 0.00 | 0.00 | 0.00 | 97 | 1016.2 |
| 20260905115710 | 20 | 45 | 0.0 | 4.8 | 0.00 | 0.00 | 0.00 | 97 | 1016.1 |
| 20260905115622 | 20 | 45 | 0.0 | 4.8 | 0.00 | 0.00 | 0.00 | 97 | 1016.1 |
| 20260905115512 | 20 | 45 | 0.0 | 4.8 | 0.00 | 0.00 | 0.00 | 97 | 1016.1 |
| 20260905115507 | 20 | 45 | 0.0 | 4.8 | 0.00 | 0.00 | 0.00 | 97 | 1016.1 |
| 20260905115122 | 20 | 45 | 0.0 | 4.8 | 0.00 | 0.00 | 0.00 | 97 | 1016.1 |
| 20260905115035 | 20 | 45 | 0.0 | 4.8 | 0.00 | 0.00 | 0.00 | 97 | 1016.0 |
| 20260905114827 | 20 | 45 | 0.0 | 4.8 | 0.00 | 0.00 | 0.00 | 97 | 1016.0 |
| 20260905114635 | 20 | 38 | 0.0 | 1.6 | 0.00 | 0.00 | 0.00 | 97 | 1016.0 |
| 20260905114622 | 20 | 39 | 0.0 | 1.6 | 0.00 | 0.00 | 0.00 | 97 | 1016.0 |
| 20260905114426 | 20 | 38 | 0.0 | 1.6 | 0.00 | 0.00 | 0.00 | 97 | 1016.0 |
| 20260905114229 | 20 | 38 | 0.0 | 1.6 | 0.00 | 0.00 | 0.00 | 97 | 1015.9 |
| 20260905114135 | 20 | 38 | 0.0 | 1.6 | 0.00 | 0.00 | 0.00 | 97 | 1015.9 |
| 20260905114031 | -17 | 37 | 0.0 | 0.0 | 0.00 | 0.00 | 0.00 | 1015.9 | |
| 20260905114026 | 20 | 39 | 0.0 | 1.6 | 0.00 | 0.00 | 0.00 | 97 | 1015.9 |
| 20260905113625 | -17 | 0.0 | 0.0 | 0.00 | 0.00 | 0.00 | 1015.7 | ||
| 20260905113335 | -17 | 0.0 | 0.0 | 0.00 | 0.00 | 0.00 | |||
| 20260905113139 | -17 | 0.0 | 0.0 | 0.00 | 0.00 | 0.00 | |||
| 20260905113033 | -17 | 0.0 | 0.0 | 0.00 | 0.00 | 0.00 | |||
| 20260905112935 | -17 | 0.0 | 0.0 | 0.00 | 0.00 | 0.00 | |||
| 20260905112708 | -17 | 0.0 | 0.0 | 0.00 | 0.00 | 0.00 | |||
| 20260905112610 | -17 | 0.0 | 0.0 | 0.00 | 0.00 | 0.00 | |||
| 20260905112507 | -17 | 0.0 | 0.0 | 0.00 | 0.00 | 0.00 | |||
| 20260905112307 | -17 | 0.0 | 0.0 | 0.00 | 0.00 | 0.00 | 1015.7 | ||
| 20260905112137 | -17 | 0.0 | 0.0 | 0.00 | 0.00 | 0.00 | 1015.7 | ||
| 20260905112003 | -17 | 0.0 | 0.0 | 0.00 | 0.00 | 0.00 | 1015.7 | ||
| 20260905111835 | -17 | 0.0 | 0.0 | 0.00 | 0.00 | 0.00 | 1015.7 | ||
| 20260905111635 | 20 | 32 | 0.0 | 8.0 | 0.00 | 0.00 | 0.00 | 97 | 1015.7 |
| 20260905111508 | 20 | 32 | 0.0 | 8.0 | 0.00 | 0.00 | 0.00 | 97 | 1015.7 |
| 20260905111434 | 20 | 32 | 0.0 | 8.0 | 0.00 | 0.00 | 0.00 | 97 | 1015.7 |
| 20260905111207 | 20 | 32 | 0.0 | 8.0 | 0.00 | 0.00 | 0.00 | 97 | 1015.6 |
| 20260905111116 | 20 | 32 | 0.0 | 8.0 | 0.00 | 0.00 | 0.00 | 97 | 1015.6 |
| 20260905111012 | 20 | 32 | 0.0 | 8.0 | 0.00 | 0.00 | 0.00 | 97 | 1015.6 |
| 20260905110735 | 20 | 31 | 0.0 | 8.0 | 0.00 | 0.00 | 0.00 | 97 | 1015.7 |
| 20260905110633 | 20 | 61 | 0.0 | 4.8 | 0.00 | 0.00 | 0.00 | 97 | 1015.7 |
| 20260905110437 | 20 | 58 | 0.0 | 4.8 | 0.00 | 0.00 | 0.00 | 97 | 1015.8 |
| 20260905110331 | 20 | 58 | 0.0 | 4.8 | 0.00 | 0.00 | 0.00 | 97 | 1015.7 |
| 20260905110131 | 20 | 59 | 0.0 | 4.8 | 0.00 | 0.00 | 0.00 | 97 | 1015.7 |
| 20260905105940 | 20 | 0 | 0.0 | 3.2 | 0.00 | 0.00 | 0.00 | 97 | 1015.9 |
| 20260905105710 | 20 | 0 | 0.0 | 3.2 | 0.00 | 0.00 | 0.00 | 97 | 1015.8 |
| 20260905105608 | 20 | 0 | 0.0 | 4.8 | 0.00 | 0.00 | 0.00 | 97 | 1015.7 |
| 20260905105410 | 20 | 0 | 0.0 | 4.8 | 0.00 | 0.00 | 0.00 | 97 | 1015.8 |
| 20260905105309 | 20 | 0 | 0.0 | 4.8 | 0.00 | 0.00 | 0.00 | 97 | 1015.8 |
| 20260905105112 | 20 | 329 | 0.0 | 4.8 | 0.00 | 0.00 | 0.00 | 97 | 1015.7 |
| 20260905104906 | 20 | 330 | 0.0 | 4.8 | 0.00 | 0.00 | 0.00 | 97 | 1015.7 |
| 20260905104709 | 20 | 329 | 0.0 | 4.8 | 0.00 | 0.00 | 0.00 | 97 | 1015.7 |
| 20260905104608 | 20 | 37 | 0.0 | 4.8 | 0.00 | 0.00 | 0.00 | 97 | 1015.7 |
| 20260905104410 | 20 | 37 | 0.0 | 4.8 | 0.00 | 0.00 | 0.00 | 97 | 1015.6 |
| 20260905104307 | 20 | 37 | 0.0 | 6.4 | 0.00 | 0.00 | 0.00 | 97 | 1015.6 |
| 20260905104145 | 20 | 35 | 0.0 | 6.4 | 0.00 | 0.00 | 0.00 | 97 | 1015.6 |
| 20260905103836 | 20 | 56 | 0.0 | 6.4 | 0.00 | 0.00 | 0.00 | 97 | 1015.4 |
| 20260905103641 | 20 | 54 | 0.0 | 6.4 | 0.00 | 0.00 | 0.00 | 97 | 1015.4 |
| 20260905103431 | 20 | 72 | 0.0 | 6.4 | 0.00 | 0.00 | 0.00 | 97 | 1015.5 |
| 20260905103334 | 20 | 86 | 0.0 | 6.4 | 0.00 | 0.00 | 0.00 | 97 | 1015.6 |
| 20260905103233 | 20 | 42 | 0.0 | 6.4 | 0.00 | 0.00 | 0.00 | 97 | 1015.6 |
| 20260905103210 | 20 | 47 | 0.0 | 8.0 | 0.00 | 0.00 | 0.00 | 97 | 1015.5 |
| 20260905103117 | 20 | 45 | 0.0 | 9.7 | 0.00 | 0.00 | 0.00 | 97 | 1015.5 |
| 20260905102831 | 20 | 59 | 0.0 | 9.7 | 0.00 | 0.00 | 0.00 | 97 | 1015.5 |
| 20260905102731 | 20 | 41 | 0.0 | 9.7 | 0.00 | 0.00 | 0.00 | 97 | 1015.4 |
| 20260905102431 | 20 | 38 | 0.0 | 9.7 | 0.00 | 0.00 | 0.00 | 97 | 1015.5 |
| 20260905102339 | 20 | 39 | 0.0 | 9.7 | 0.00 | 0.00 | 0.00 | 97 | 1015.4 |
| 20260905102233 | 20 | 37 | 0.0 | 9.7 | 0.00 | 0.00 | 0.00 | 97 | 1015.5 |
| 20260905102108 | 20 | 0 | 0.0 | 9.7 | 0.00 | 0.00 | 0.00 | 97 | 1015.5 |
| 20260905102047 | -17 | 0.0 | 0.0 | 0.00 | 0.00 | 0.00 | 1015.5 | ||
| 20260905101542 | -17 | 0.0 | 0.0 | 0.00 | 0.00 | 0.00 | |||
| 20260905101534 | -17 | 0.0 | 0.0 | 0.00 | 0.00 | 0.00 | |||
| 20260905101307 | -17 | 0.0 | 0.0 | 0.00 | 0.00 | 0.00 | |||
| 20260905101248 | -17 | 0.0 | 0.0 | 0.00 | 0.00 | 0.00 | |||
| 20260905100809 | -17 | 0.0 | 0.0 | 0.00 | 0.00 | 0.00 | |||
| 20260905100605 | -17 | 0.0 | 0.0 | 0.00 | 0.00 | 0.00 | |||
| 20260905100516 | -17 | 0.0 | 0.0 | 0.00 | 0.00 | 0.00 | 1015.4 | ||
| 20260905100507 | -17 | 0.0 | 0.0 | 0.00 | 0.00 | 0.00 | |||
| 20260905100247 | 20 | 41 | 0.0 | 3.2 | 0.00 | 0.00 | 0.00 | 97 | 1015.4 |
| 20260905100212 | 20 | 41 | 0.0 | 3.2 | 0.00 | 0.00 | 0.00 | 97 | 1015.4 |
| 20260905100208 | -17 | 0.0 | 0.0 | 0.00 | 0.00 | 0.00 | 1015.4 | ||
| 20260905095734 | 20 | 41 | 0.0 | 6.4 | 0.00 | 0.00 | 0.00 | 97 | 1015.4 |
| 20260905095509 | 20 | 41 | 0.0 | 6.4 | 0.00 | 0.00 | 0.00 | 97 | 1015.4 |
| 20260905095432 | 20 | 41 | 0.0 | 6.4 | 0.00 | 0.00 | 0.00 | 97 | 1015.5 |
| 20260905095314 | 20 | 41 | 0.0 | 6.4 | 0.00 | 0.00 | 0.00 | 97 | 1015.4 |
| 20260905095218 | 20 | 41 | 0.0 | 6.4 | 0.00 | 0.00 | 0.00 | 97 | 1015.2 |
| 20260905095214 | 20 | 59 | 0.0 | 6.4 | 0.00 | 0.00 | 0.00 | 97 | 1015.1 |
| 20260905095201 | 20 | 41 | 0.0 | 6.4 | 0.00 | 0.00 | 0.00 | 97 | 1015.2 |
| 20260905094706 | 20 | 38 | 0.0 | 3.2 | 0.00 | 0.00 | 0.00 | 97 | 1014.7 |
| 20260905094611 | 20 | 8 | 0.0 | 1.6 | 0.00 | 0.00 | 0.00 | 97 | 1014.6 |
| 20260905094435 | 20 | 8 | 0.0 | 1.6 | 0.00 | 0.00 | 0.00 | 97 | 1014.6 |
| 20260905094313 | 20 | 8 | 0.0 | 1.6 | 0.00 | 0.00 | 0.00 | 97 | 1014.6 |
| 20260905094038 | 20 | 7 | 0.0 | 1.6 | 0.00 | 0.00 | 0.00 | 97 | 1014.6 |
| 20260905093926 | 20 | 8 | 0.0 | 3.2 | 0.00 | 0.00 | 0.00 | 97 | 1014.6 |
| 20260905093837 | 20 | 8 | 0.0 | 4.8 | 0.00 | 0.00 | 0.00 | 97 | 1014.6 |
| 20260905093743 | 20 | 8 | 0.0 | 4.8 | 0.00 | 0.00 | 0.00 | 97 | 1014.5 |
| 20260905093707 | 20 | 10 | 0.0 | 4.8 | 0.00 | 0.00 | 0.00 | 97 | 1014.5 |
| 20260905093700 | 20 | 8 | 0.0 | 4.8 | 0.00 | 0.00 | 0.00 | 97 | 1014.7 |
| 20260905093241 | 20 | 350 | 0.0 | 4.8 | 0.00 | 0.00 | 0.00 | 97 | 1014.6 |
| 20260905093039 | 20 | 350 | 0.0 | 4.8 | 0.00 | 0.00 | 0.00 | 97 | 1014.6 |
| 20260905092914 | 20 | 347 | 0.0 | 4.8 | 0.00 | 0.00 | 0.00 | 97 | 1014.6 |
| 20260905092809 | 20 | 14 | 0.0 | 4.8 | 0.00 | 0.00 | 0.00 | 97 | 1014.6 |
| 20260905092703 | 20 | 38 | 0.0 | 4.8 | 0.00 | 0.00 | 0.00 | 97 | 1014.6 |
| 20260905092652 | 20 | 18 | 0.0 | 4.8 | 0.00 | 0.00 | 0.00 | 97 | 1014.7 |
| 20260905092624 | 20 | 38 | 0.0 | 4.8 | 0.00 | 0.00 | 0.00 | 97 | 1014.6 |
| 20260905092211 | 20 | 38 | 0.0 | 4.8 | 0.00 | 0.00 | 0.00 | 97 | 1014.6 |
| 20260905092010 | 20 | 16 | 0.0 | 4.8 | 0.00 | 0.00 | 0.00 | 97 | 1014.7 |
| 20260905091921 | 20 | 14 | 0.0 | 4.8 | 0.00 | 0.00 | 0.00 | 97 | 1014.7 |
| 20260905091911 | 20 | 16 | 0.0 | 4.8 | 0.00 | 0.00 | 0.00 | 97 | 1014.7 |
| 20260905091709 | 20 | 14 | 0.0 | 4.8 | 0.00 | 0.00 | 0.00 | 97 | 1014.8 |
| 20260905091650 | 20 | 16 | 0.0 | 4.8 | 0.00 | 0.00 | 0.00 | 97 | 1014.7 |
| 20260905091211 | 20 | 6 | 0.0 | 4.8 | 0.00 | 0.00 | 0.00 | 97 | 1014.8 |
| 20260905091009 | 20 | 6 | 0.0 | 4.8 | 0.00 | 0.00 | 0.00 | 97 | 1014.8 |
| 20260905090910 | 20 | 6 | 0.0 | 4.8 | 0.00 | 0.00 | 0.00 | 97 | 1014.8 |
| 20260905090810 | 20 | 6 | 0.0 | 4.8 | 0.00 | 0.00 | 0.00 | 97 | 1015.0 |
| 20260905090610 | 20 | 6 | 0.0 | 4.8 | 0.00 | 0.00 | 0.00 | 97 | 1015.0 |
| 20260905090521 | 20 | 6 | 0.0 | 4.8 | 0.00 | 0.00 | 0.00 | 97 | 1015.1 |
| 20260905090413 | 20 | 6 | 0.0 | 4.8 | 0.00 | 0.00 | 0.00 | 97 | 1015.1 |
| 20260905090210 | 20 | 3 | 0.0 | 3.2 | 0.00 | 0.00 | 0.00 | 96 | 1015.0 |
| 20260905090113 | 20 | 3 | 0.0 | 4.8 | 0.00 | 0.00 | 0.00 | 96 | 1015.1 |
| 20260905085910 | 20 | 3 | 0.0 | 4.8 | 0.00 | 0.00 | 0.00 | 96 | 1015.1 |
| 20260905085809 | 20 | 3 | 0.0 | 4.8 | 0.00 | 0.00 | 0.00 | 96 | 1015.1 |
| 20260905085657 | 20 | 3 | 0.0 | 4.8 | 0.00 | 0.00 | 0.00 | 96 | 1015.1 |
| 20260905085648 | 20 | 3 | 0.0 | 4.8 | 0.00 | 0.00 | 0.00 | 96 | 1015.2 |
| 20260905085622 | 20 | 3 | 0.0 | 4.8 | 0.00 | 0.00 | 0.00 | 96 | 1015.1 |
| 20260905085211 | 20 | 3 | 0.0 | 4.8 | 0.00 | 0.00 | 0.00 | 96 | 1015.3 |
| 20260905085110 | 20 | 0 | 0.0 | 4.8 | 0.00 | 0.00 | 0.00 | 96 | 1015.3 |
| 20260905084911 | 19 | 14 | 0.0 | 4.8 | 0.00 | 0.00 | 0.00 | 96 | 1015.1 |
| 20260905084810 | 19 | 16 | 0.0 | 4.8 | 0.00 | 0.00 | 0.00 | 96 | 1015.2 |
| 20260905084714 | 19 | 4 | 0.0 | 6.4 | 0.00 | 0.00 | 0.00 | 96 | 1015.1 |
| 20260905084658 | 19 | 11 | 0.0 | 4.8 | 0.00 | 0.00 | 0.00 | 96 | 1015.2 |
| 20260905084626 | 19 | 4 | 0.0 | 6.4 | 0.00 | 0.00 | 0.00 | 96 | 1015.1 |
| 20260905084210 | 19 | 30 | 0.0 | 6.4 | 0.00 | 0.00 | 0.00 | 96 | 1015.1 |
| 20260905084104 | 19 | 7 | 0.0 | 6.4 | 0.00 | 0.00 | 0.00 | 96 | 1015.2 |
| 20260905083910 | 19 | 8 | 0.0 | 6.4 | 0.00 | 0.00 | 0.00 | 96 | 1015.1 |
| 20260905083809 | 19 | 7 | 0.0 | 6.4 | 0.00 | 0.00 | 0.00 | 96 | 1015.2 |
| 20260905083757 | 19 | 51 | 0.0 | 6.4 | 0.00 | 0.00 | 0.00 | 96 | 1015.2 |
| 20260905083704 | 19 | 23 | 0.0 | 4.8 | 0.00 | 0.00 | 0.00 | 96 | 1015.2 |
| 20260905083624 | 19 | 23 | 0.0 | 4.8 | 0.00 | 0.00 | 0.00 | 96 | 1015.2 |
| 20260905083211 | 19 | 21 | 0.0 | 4.8 | 0.00 | 0.00 | 0.00 | 96 | 1015.2 |
| 20260905083010 | 19 | 16 | 0.0 | 4.8 | 0.00 | 0.00 | 0.00 | 96 | 1015.2 |
| 20260905082914 | 19 | 16 | 0.0 | 4.8 | 0.00 | 0.00 | 0.00 | 96 | 1015.1 |
| 20260905082812 | 19 | 16 | 0.0 | 4.8 | 0.00 | 0.00 | 0.00 | 96 | 1015.2 |
| 20260905082802 | 19 | 14 | 0.0 | 4.8 | 0.00 | 0.00 | 0.00 | 96 | 1015.1 |
| 20260905082715 | 19 | 14 | 0.0 | 4.8 | 0.00 | 0.00 | 0.00 | 96 | 1015.1 |
| 20260905082628 | 19 | 14 | 0.0 | 4.8 | 0.00 | 0.00 | 0.00 | 96 | 1015.1 |
| 20260905082309 | 19 | 21 | 0.0 | 1.6 | 0.00 | 0.00 | 0.00 | 96 | 1015.1 |
| 20260905082014 | 19 | 27 | 0.0 | 1.6 | 0.00 | 0.00 | 0.00 | 96 | 1015.1 |
| 20260905081910 | 19 | 25 | 0.0 | 1.6 | 0.00 | 0.00 | 0.00 | 96 | 1015.1 |
| 20260905081811 | 19 | 25 | 0.0 | 1.6 | 0.00 | 0.00 | 0.00 | 96 | 1015.2 |
| 20260905081713 | 19 | 25 | 0.0 | 1.6 | 0.00 | 0.00 | 0.00 | 96 | 1015.2 |
| 20260905081657 | 19 | 25 | 0.0 | 1.6 | 0.00 | 0.00 | 0.00 | 96 | 1015.2 |
| 20260905081624 | 19 | 25 | 0.0 | 1.6 | 0.00 | 0.00 | 0.00 | 96 | 1015.2 |
| 20260905081310 | 19 | 25 | 0.0 | 1.6 | 0.00 | 0.00 | 0.00 | 96 | 1015.2 |
| 20260905081011 | 19 | 25 | 0.0 | 1.6 | 0.00 | 0.00 | 0.00 | 96 | 1015.2 |
| 20260905080923 | 19 | 25 | 0.0 | 1.6 | 0.00 | 0.00 | 0.00 | 95 | 1015.3 |
| 20260905080914 | 19 | 27 | 0.0 | 1.6 | 0.00 | 0.00 | 0.00 | 95 | 1015.2 |
| 20260905080700 | 19 | 25 | 0.0 | 1.6 | 0.00 | 0.00 | 0.00 | 95 | 1015.3 |
| 20260905080652 | 19 | 25 | 0.0 | 1.6 | 0.00 | 0.00 | 0.00 | 95 | 1015.2 |
| 20260905080626 | 19 | 25 | 0.0 | 1.6 | 0.00 | 0.00 | 0.00 | 95 | 1015.3 |
| 20260905080211 | 19 | 25 | 0.0 | 1.6 | 0.00 | 0.00 | 0.00 | 95 | 1015.3 |
| 20260905080010 | 19 | 25 | 0.0 | 0.0 | 0.00 | 0.00 | 0.00 | 95 | 1015.4 |
| 20260905075921 | 19 | 25 | 0.0 | 0.0 | 0.00 | 0.00 | 0.00 | 95 | 1015.3 |
| 20260905075912 | 19 | 27 | 0.0 | 0.0 | 0.00 | 0.00 | 0.00 | 95 | 1015.3 |
| 20260905075704 | 19 | 25 | 0.0 | 0.0 | 0.00 | 0.00 | 0.00 | 95 | 1015.3 |
| 20260905075652 | 19 | 25 | 0.0 | 0.0 | 0.00 | 0.00 | 0.00 | 95 | 1015.3 |
| 20260905075208 | 20 | 25 | 0.0 | 0.0 | 0.00 | 0.00 | 0.00 | 95 | 1015.2 |
| 20260905075008 | 20 | 25 | 0.0 | 1.6 | 0.00 | 0.00 | 0.00 | 95 | 1015.4 |
| 20260905074916 | 20 | 25 | 0.0 | 1.6 | 0.00 | 0.00 | 0.00 | 95 | 1015.4 |
| 20260905074810 | 20 | 25 | 0.0 | 1.6 | 0.00 | 0.00 | 0.00 | 95 | 1015.4 |
| 20260905074709 | 20 | 27 | 0.0 | 1.6 | 0.00 | 0.00 | 0.00 | 95 | 1015.3 |
| 20260905074657 | 20 | 25 | 0.0 | 1.6 | 0.00 | 0.00 | 0.00 | 95 | 1015.4 |
| 20260905074211 | 20 | 27 | 0.0 | 1.6 | 0.00 | 0.00 | 0.00 | 95 | 1015.3 |
| 20260905074109 | 20 | 25 | 0.0 | 1.6 | 0.00 | 0.00 | 0.00 | 95 | 1015.3 |
| 20260905073905 | 20 | 25 | 0.0 | 1.6 | 0.00 | 0.00 | 0.00 | 95 | 1015.4 |
| 20260905073810 | 20 | 27 | 0.0 | 1.6 | 0.00 | 0.00 | 0.00 | 95 | 1015.4 |
| 20260905073610 | 20 | 27 | 0.0 | 0.0 | 0.00 | 0.00 | 0.00 | 95 | 1015.4 |
| 20260905073429 | 20 | 27 | 0.0 | 0.0 | 0.00 | 0.00 | 0.00 | 95 | 1015.5 |
| 20260905073420 | 20 | 25 | 0.0 | 0.0 | 0.00 | 0.00 | 0.00 | 95 | 1015.5 |
| 20260905073234 | 20 | 27 | 0.0 | 0.0 | 0.00 | 0.00 | 0.00 | 95 | 1015.5 |
| 20260905073207 | 20 | 25 | 0.0 | 0.0 | 0.00 | 0.00 | 0.00 | 95 | 1015.5 |
| 20260905073153 | 20 | 25 | 0.0 | 1.6 | 0.00 | 0.00 | 0.00 | 95 | 1015.4 |
| 20260905072806 | 20 | 25 | 0.0 | 1.6 | 0.00 | 0.00 | 0.00 | 95 | 1015.4 |
| 20260905072604 | 20 | 27 | 0.0 | 1.6 | 0.00 | 0.00 | 0.00 | 95 | 1015.3 |
| 20260905072407 | 20 | 25 | 0.0 | 1.6 | 0.00 | 0.00 | 0.00 | 95 | 1015.3 |
| 20260905072306 | 20 | 25 | 0.0 | 1.6 | 0.00 | 0.00 | 0.00 | 95 | 1015.2 |
| 20260905072154 | 20 | 25 | 0.0 | 1.6 | 0.00 | 0.00 | 0.00 | 95 | 1015.4 |
| 20260905072149 | 20 | 25 | 0.0 | 0.0 | 0.00 | 0.00 | 0.00 | 95 | 1015.4 |
| 20260905072135 | 20 | 25 | 0.0 | 1.6 | 0.00 | 0.00 | 0.00 | 95 | 1015.3 |
| 20260905071605 | -17 | 0.0 | 0.0 | 0.00 | 0.00 | 0.00 | 1015.5 | ||
| 20260905071406 | -17 | 0.0 | 0.0 | 0.00 | 0.00 | 0.00 | 1015.4 | ||
| 20260905071135 | -17 | 0.0 | 0.0 | 0.00 | 0.00 | 0.00 | |||
| 20260905071047 | -17 | 0.0 | 0.0 | 0.00 | 0.00 | 0.00 | |||
| 20260905071043 | -17 | 0.0 | 0.0 | 0.00 | 0.00 | 0.00 | |||
| 20260905071033 | -17 | 0.0 | 0.0 | 0.00 | 0.00 | 0.00 | |||
| 20260905070534 | -17 | 0.0 | 0.0 | 0.00 | 0.00 | 0.00 | |||
| 20260905070437 | -17 | 0.0 | 0.0 | 0.00 | 0.00 | 0.00 | |||
| 20260905070303 | -17 | 0.0 | 0.0 | 0.00 | 0.00 | 0.00 | |||
| 20260905070107 | -17 | 0.0 | 0.0 | 0.00 | 0.00 | 0.00 | 1015.4 | ||
| 20260905065907 | -17 | 0.0 | 0.0 | 0.00 | 0.00 | 0.00 | 1015.4 | ||
| 20260905065809 | -17 | 0.0 | 0.0 | 0.00 | 0.00 | 0.00 | 1015.4 | ||
| 20260905065706 | -17 | 0.0 | 0.0 | 0.00 | 0.00 | 0.00 | 1015.4 | ||
| 20260905065435 | 20 | 25 | 0.0 | 0.0 | 0.00 | 0.00 | 0.00 | 94 | 1015.4 |
| 20260905065345 | 20 | 25 | 0.0 | 0.0 | 0.00 | 0.00 | 0.00 | 94 | 1015.4 |
| 20260905065240 | 20 | 25 | 0.0 | 0.0 | 0.00 | 0.00 | 0.00 | 94 | 1015.4 |
| 20260905065023 | 20 | 25 | 0.0 | 0.0 | 0.00 | 0.00 | 0.00 | 94 | 1015.5 |
| 20260905064922 | 20 | 25 | 0.0 | 0.0 | 0.00 | 0.00 | 0.00 | 94 | 1015.4 |
| 20260905064724 | 20 | 25 | 0.0 | 0.0 | 0.00 | 0.00 | 0.00 | 94 | 1015.5 |
| 20260905064622 | 20 | 25 | 0.0 | 0.0 | 0.00 | 0.00 | 0.00 | 94 | 1015.4 |
| 20260905064421 | -17 | 27 | 0.0 | 0.0 | 0.00 | 0.00 | 0.00 | 1015.4 | |
| 20260905064329 | -17 | 0.0 | 0.0 | 0.00 | 0.00 | 0.00 | 1015.5 | ||
| 20260905064223 | -17 | 0.0 | 0.0 | 0.00 | 0.00 | 0.00 | 1015.5 | ||
| 20260905063809 | -17 | 0.0 | 0.0 | 0.00 | 0.00 | 0.00 | |||
| 20260905063705 | -17 | 0.0 | 0.0 | 0.00 | 0.00 | 0.00 | |||
| 20260905063334 | -17 | 0.0 | 0.0 | 0.00 | 0.00 | 0.00 | |||
| 20260905063233 | -17 | 0.0 | 0.0 | 0.00 | 0.00 | 0.00 | |||
| 20260905063135 | -17 | 0.0 | 0.0 | 0.00 | 0.00 | 0.00 | |||
| 20260905062934 | -17 | 0.0 | 0.0 | 0.00 | 0.00 | 0.00 | |||
| 20260905062734 | -17 | 0.0 | 0.0 | 0.00 | 0.00 | 0.00 | 1015.3 | ||
| 20260905062606 | -17 | 0.0 | 0.0 | 0.00 | 0.00 | 0.00 | 1015.3 | ||
| 20260905062307 | 20 | 25 | 0.0 | 0.0 | 0.00 | 0.00 | 0.00 | 94 | 1015.3 |
| 20260905062216 | 20 | 25 | 0.0 | 0.0 | 0.00 | 0.00 | 0.00 | 94 | 1015.3 |
| 20260905062208 | 20 | 25 | 0.0 | 0.0 | 0.00 | 0.00 | 0.00 | 94 | 1015.3 |
| 20260905061946 | 20 | 25 | 0.0 | 0.0 | 0.00 | 0.00 | 0.00 | 94 | 1015.3 |
| 20260905061939 | 20 | 25 | 0.0 | 0.0 | 0.00 | 0.00 | 0.00 | 94 | 1015.3 |
| 20260905061916 | 20 | 25 | 0.0 | 0.0 | 0.00 | 0.00 | 0.00 | 94 | 1015.3 |
| 20260905061502 | 20 | 25 | 0.0 | 0.0 | 0.00 | 0.00 | 0.00 | 94 | 1015.3 |
| 20260905061259 | 20 | 25 | 0.0 | 0.0 | 0.00 | 0.00 | 0.00 | 93 | 1015.3 |
| 20260905061215 | 20 | 27 | 0.0 | 0.0 | 0.00 | 0.00 | 0.00 | 93 | 1015.2 |
| 20260905061200 | 20 | 25 | 0.0 | 0.0 | 0.00 | 0.00 | 0.00 | 93 | 1015.4 |
| 20260905060949 | 20 | 27 | 0.0 | 3.2 | 0.00 | 0.00 | 0.00 | 93 | 1015.2 |
| 20260905060939 | 20 | 25 | 0.0 | 3.2 | 0.00 | 0.00 | 0.00 | 93 | 1015.3 |
| 20260905060506 | 20 | 25 | 0.0 | 3.2 | 0.00 | 0.00 | 0.00 | 93 | 1015.3 |
| 20260905060459 | 20 | 24 | 0.0 | 3.2 | 0.00 | 0.00 | 0.00 | 93 | 1015.3 |
| 20260905060201 | 20 | 25 | 0.0 | 3.2 | 0.00 | 0.00 | 0.00 | 93 | 1015.2 |
| 20260905060100 | 20 | 25 | 0.0 | 1.6 | 0.00 | 0.00 | 0.00 | 93 | 1015.3 |
| 20260905055935 | 20 | 25 | 0.0 | 0.0 | 0.00 | 0.00 | 0.00 | 93 | 1015.2 |
| 20260905055915 | -17 | 0.0 | 0.0 | 0.00 | 0.00 | 0.00 | 1015.2 | ||
| 20260905055406 | -17 | 0.0 | 0.0 | 0.00 | 0.00 | 0.00 | |||
| 20260905055307 | -17 | 0.0 | 0.0 | 0.00 | 0.00 | 0.00 | |||
| 20260905055114 | -17 | 0.0 | 0.0 | 0.00 | 0.00 | 0.00 | |||
| 20260905055051 | -17 | 0.0 | 0.0 | 0.00 | 0.00 | 0.00 | |||
| 20260905054829 | -17 | 0.0 | 0.0 | 0.00 | 0.00 | 0.00 | |||
| 20260905054438 | -17 | 0.0 | 0.0 | 0.00 | 0.00 | 0.00 | |||
| 20260905054333 | -17 | 0.0 | 0.0 | 0.00 | 0.00 | 0.00 | |||
| 20260905054234 | -17 | 0.0 | 0.0 | 0.00 | 0.00 | 0.00 | 1015.2 | ||
| 20260905054008 | -17 | 0.0 | 0.0 | 0.00 | 0.00 | 0.00 | 1015.2 | ||
| 20260905053806 | 21 | 25 | 0.0 | 0.0 | 0.00 | 0.00 | 0.00 | 92 | 1015.2 |
| 20260905053607 | 21 | 25 | 0.0 | 0.0 | 0.00 | 0.00 | 0.00 | 92 | 1015.2 |
| 20260905053412 | 21 | 25 | 0.0 | 0.0 | 0.00 | 0.00 | 0.00 | 92 | 1015.2 |
| 20260905053406 | 21 | 25 | 0.0 | 0.0 | 0.00 | 0.00 | 0.00 | 92 | 1015.2 |
| 20260905053304 | 21 | 25 | 0.0 | 0.0 | 0.00 | 0.00 | 0.00 | 92 | 1015.2 |
| 20260905053003 | 21 | 25 | 0.0 | 0.0 | 0.00 | 0.00 | 0.00 | 92 | 1015.2 |
| 20260905052804 | 21 | 27 | 0.0 | 0.0 | 0.00 | 0.00 | 0.00 | 92 | 1015.2 |
| 20260905052602 | 21 | 25 | 0.0 | 0.0 | 0.00 | 0.00 | 0.00 | 92 | 1015.1 |
| 20260905052403 | 21 | 27 | 0.0 | 0.0 | 0.00 | 0.00 | 0.00 | 92 | 1015.2 |
| 20260905052306 | 21 | 27 | 0.0 | 0.0 | 0.00 | 0.00 | 0.00 | 92 | 1015.1 |
| 20260905052202 | 21 | 27 | 0.0 | 0.0 | 0.00 | 0.00 | 0.00 | 92 | 1015.1 |
| 20260905052004 | 21 | 25 | 0.0 | 0.0 | 0.00 | 0.00 | 0.00 | 92 | 1015.1 |
| 20260905051910 | 21 | 25 | 0.0 | 0.0 | 0.00 | 0.00 | 0.00 | 92 | 1014.8 |
| 20260905051805 | 21 | 25 | 0.0 | 0.0 | 0.00 | 0.00 | 0.00 | 92 | 1014.8 |
| 20260905051603 | 21 | 27 | 0.0 | 1.6 | 0.00 | 0.00 | 0.00 | 91 | 1015.0 |
| 20260905051402 | 21 | 24 | 0.0 | 1.6 | 0.00 | 0.00 | 0.00 | 92 | 1015.0 |
| 20260905051315 | 21 | 25 | 0.0 | 1.6 | 0.00 | 0.00 | 0.00 | 92 | 1015.0 |
| 20260905051300 | 21 | 25 | 0.0 | 1.6 | 0.00 | 0.00 | 0.00 | 92 | 1014.8 |
| 20260905051002 | 21 | 25 | 0.0 | 1.6 | 0.00 | 0.00 | 0.00 | 91 | 1014.8 |
| 20260905050813 | 21 | 25 | 0.0 | 1.6 | 0.00 | 0.00 | 0.00 | 91 | 1014.8 |
| 20260905050800 | 21 | 25 | 0.0 | 1.6 | 0.00 | 0.00 | 0.00 | 91 | 1014.8 |
| 20260905050602 | 21 | 25 | 0.0 | 0.0 | 0.00 | 0.00 | 0.00 | 91 | 1014.8 |
| 20260905050457 | 21 | 25 | 0.0 | 0.0 | 0.00 | 0.00 | 0.00 | 91 | 1014.8 |
| 20260905050303 | 21 | 24 | 0.0 | 0.0 | 0.00 | 0.00 | 0.00 | 91 | 1014.7 |
| 20260905050200 | 21 | 25 | 0.0 | 0.0 | 0.00 | 0.00 | 0.00 | 91 | 1014.7 |
| 20260905050000 | 21 | 25 | 0.0 | 0.0 | 0.00 | 0.00 | 0.00 | 91 | 1014.7 |
| 20260905045910 | -17 | 0.0 | 0.0 | 0.00 | 0.00 | 0.00 | 1014.8 | ||
| 20260905045802 | -17 | 0.0 | 0.0 | 0.00 | 0.00 | 0.00 | 1014.8 | ||
| 20260905045410 | -17 | 0.0 | 0.0 | 0.00 | 0.00 | 0.00 | |||
| 20260905045331 | -17 | 0.0 | 0.0 | 0.00 | 0.00 | 0.00 | |||
| 20260905045207 | -17 | 0.0 | 0.0 | 0.00 | 0.00 | 0.00 | |||
| 20260905045006 | -17 | 0.0 | 0.0 | 0.00 | 0.00 | 0.00 | |||
| 20260905044909 | -17 | 0.0 | 0.0 | 0.00 | 0.00 | 0.00 | |||
| 20260905044832 | -17 | 0.0 | 0.0 | 0.00 | 0.00 | 0.00 | |||
| 20260905044534 | -17 | 0.0 | 0.0 | 0.00 | 0.00 | 0.00 | |||
| 20260905044341 | -17 | 0.0 | 0.0 | 0.00 | 0.00 | 0.00 | 1014.8 | ||
| 20260905044303 | -17 | 0.0 | 0.0 | 0.00 | 0.00 | 0.00 | 1014.8 | ||
| 20260905044134 | -17 | 0.0 | 0.0 | 0.00 | 0.00 | 0.00 | 1014.8 | ||
| 20260905044048 | 22 | 25 | 0.0 | 1.6 | 0.00 | 0.00 | 0.00 | 90 | 1014.8 |
| 20260905044037 | -17 | 25 | 0.0 | 0.0 | 0.00 | 0.00 | 0.00 | 1014.8 | |
| 20260905043708 | 22 | 25 | 0.0 | 1.6 | 0.00 | 0.00 | 0.00 | 90 | 1014.8 |
| 20260905043649 | 22 | 25 | 0.0 | 1.6 | 0.00 | 0.00 | 0.00 | 90 | 1014.8 |
| 20260905043255 | 22 | 25 | 0.0 | 1.6 | 0.00 | 0.00 | 0.00 | 90 | 1014.7 |
| 20260905043053 | 22 | 25 | 0.0 | 1.6 | 0.00 | 0.00 | 0.00 | 90 | 1014.8 |
| 20260905043040 | 22 | 27 | 0.0 | 1.6 | 0.00 | 0.00 | 0.00 | 90 | 1014.7 |
| 20260905043025 | 22 | 27 | 0.0 | 1.6 | 0.00 | 0.00 | 0.00 | 90 | 1014.8 |
| 20260905042653 | 22 | 27 | 0.0 | 1.6 | 0.00 | 0.00 | 0.00 | 90 | 1014.8 |
| 20260905042453 | 22 | 25 | 0.0 | 0.0 | 0.00 | 0.00 | 0.00 | 90 | 1014.7 |
| 20260905042254 | -17 | 0.0 | 0.0 | 0.00 | 0.00 | 0.00 | 1014.7 | ||
| 20260905042104 | -17 | 0.0 | 0.0 | 0.00 | 0.00 | 0.00 | |||
| 20260905041844 | -17 | 0.0 | 0.0 | 0.00 | 0.00 | 0.00 | |||
| 20260905041431 | -17 | 0.0 | 0.0 | 0.00 | 0.00 | 0.00 | |||
| 20260905041232 | -17 | 0.0 | 0.0 | 0.00 | 0.00 | 0.00 | |||
| 20260905041130 | -17 | 0.0 | 0.0 | 0.00 | 0.00 | 0.00 | |||
| 20260905041031 | -17 | 0.0 | 0.0 | 0.00 | 0.00 | 0.00 | |||
| 20260905040804 | -17 | 0.0 | 0.0 | 0.00 | 0.00 | 0.00 | 1014.8 | ||
| 20260905040618 | 22 | 31 | 0.0 | 0.0 | 0.00 | 0.00 | 0.00 | 89 | 1014.8 |
| 20260905040604 | -17 | 0.0 | 0.0 | 0.00 | 0.00 | 0.00 | 1014.8 | ||
| 20260905040204 | 22 | 31 | 0.0 | 3.2 | 0.00 | 0.00 | 0.00 | 89 | 1014.8 |
| 20260905040116 | 22 | 31 | 0.0 | 3.2 | 0.00 | 0.00 | 0.00 | 89 | 1014.8 |
| 20260905035950 | 22 | 31 | 0.0 | 3.2 | 0.00 | 0.00 | 0.00 | 89 | 1014.8 |
| 20260905035749 | 22 | 31 | 0.0 | 3.2 | 0.00 | 0.00 | 0.00 | 89 | 1014.7 |
| 20260905035551 | 22 | 31 | 0.0 | 3.2 | 0.00 | 0.00 | 0.00 | 89 | 1014.7 |
| 20260905035353 | 22 | 31 | 0.0 | 1.6 | 0.00 | 0.00 | 0.00 | 89 | 1014.7 |
| 20260905035348 | 22 | 31 | 0.0 | 3.2 | 0.00 | 0.00 | 0.00 | 89 | 1014.7 |
| 20260905035039 | 22 | 31 | 0.0 | 3.2 | 0.00 | 0.00 | 0.00 | 89 | 1014.7 |
| 20260905034940 | 22 | 31 | 0.0 | 3.2 | 0.00 | 0.00 | 0.00 | 89 | 1014.7 |
| 20260905034739 | 22 | 31 | 0.0 | 3.2 | 0.00 | 0.00 | 0.00 | 89 | 1014.7 |
| 20260905034544 | 22 | 31 | 0.0 | 3.2 | 0.00 | 0.00 | 0.00 | 89 | 1014.8 |
| 20260905034535 | 22 | 32 | 0.0 | 3.2 | 0.00 | 0.00 | 0.00 | 89 | 1014.8 |
| 20260905034336 | 22 | 31 | 0.0 | 3.2 | 0.00 | 0.00 | 0.00 | 89 | 1014.8 |
| 20260905034135 | 23 | 32 | 0.0 | 3.2 | 0.00 | 0.00 | 0.00 | 89 | 1015.0 |
| 20260905034041 | 23 | 31 | 0.0 | 3.2 | 0.00 | 0.00 | 0.00 | 89 | 1014.8 |
| 20260905033939 | -17 | 31 | 0.0 | 3.2 | 0.00 | 0.00 | 0.00 | 1015.0 | |
| 20260905033933 | 23 | 32 | 0.0 | 3.2 | 0.00 | 0.00 | 0.00 | 89 | 1014.8 |
| 20260905033535 | -17 | 0.0 | 0.0 | 0.00 | 0.00 | 0.00 | 1015.0 | ||
| 20260905033134 | -17 | 0.0 | 0.0 | 0.00 | 0.00 | 0.00 | |||
| 20260905032908 | -17 | 0.0 | 0.0 | 0.00 | 0.00 | 0.00 | |||
| 20260905032831 | -17 | 0.0 | 0.0 | 0.00 | 0.00 | 0.00 | |||
| 20260905032706 | -17 | 0.0 | 0.0 | 0.00 | 0.00 | 0.00 | |||
| 20260905032506 | -17 | 0.0 | 0.0 | 0.00 | 0.00 | 0.00 | |||
| 20260905032306 | -17 | 0.0 | 0.0 | 0.00 | 0.00 | 0.00 | |||
| 20260905032232 | -17 | 0.0 | 0.0 | 0.00 | 0.00 | 0.00 | 1014.6 | ||
| 20260905031835 | -17 | 0.0 | 0.0 | 0.00 | 0.00 | 0.00 | 1014.6 | ||
| 20260905031802 | -17 | 0.0 | 0.0 | 0.00 | 0.00 | 0.00 | 1014.6 | ||
| 20260905031634 | 23 | 34 | 0.0 | 0.0 | 0.00 | 0.00 | 0.00 | 89 | 1014.6 |
| 20260905031435 | 23 | 34 | 0.0 | 0.0 | 0.00 | 0.00 | 0.00 | 89 | 1014.6 |
| 20260905031307 | 23 | 34 | 0.0 | 0.0 | 0.00 | 0.00 | 0.00 | 89 | 1014.6 |
| 20260905031215 | 23 | 34 | 0.0 | 0.0 | 0.00 | 0.00 | 0.00 | 89 | 1014.6 |
| 20260905031015 | 23 | 34 | 0.0 | 0.0 | 0.00 | 0.00 | 0.00 | 89 | 1014.6 |
| 20260905030826 | 23 | 34 | 0.0 | 0.0 | 0.00 | 0.00 | 0.00 | 89 | 1014.6 |
| 20260905030822 | 23 | 34 | 0.0 | 0.0 | 0.00 | 0.00 | 0.00 | 89 | 1014.6 |
| 20260905030808 | 23 | 34 | 0.0 | 0.0 | 0.00 | 0.00 | 0.00 | 89 | 1014.5 |
| 20260905030415 | 23 | 34 | 0.0 | 0.0 | 0.00 | 0.00 | 0.00 | 89 | 1014.5 |
| 20260905030303 | 23 | 37 | 0.0 | 0.0 | 0.00 | 0.00 | 0.00 | 89 | 1014.5 |
| 20260905030216 | 23 | 37 | 0.0 | 0.0 | 0.00 | 0.00 | 0.00 | 89 | 1014.5 |
| 20260905030012 | 23 | 30 | 0.0 | 0.0 | 0.00 | 0.00 | 0.00 | 89 | 1014.5 |
| 20260905025815 | 23 | 30 | 0.0 | 0.0 | 0.00 | 0.00 | 0.00 | 89 | 1014.4 |
| 20260905025801 | 23 | 30 | 0.0 | 0.0 | 0.00 | 0.00 | 0.00 | 89 | 1014.4 |
| 20260905025614 | 23 | 30 | 0.0 | 0.0 | 0.00 | 0.00 | 0.00 | 89 | 1014.4 |
| 20260905025417 | 23 | 31 | 0.0 | 0.0 | 0.00 | 0.00 | 0.00 | 89 | 1014.4 |
| 20260905025412 | 23 | 30 | 0.0 | 0.0 | 0.00 | 0.00 | 0.00 | 89 | 1014.3 |
| 20260905025306 | 23 | 31 | 0.0 | 0.0 | 0.00 | 0.00 | 0.00 | 89 | 1014.3 |
| 20260905025013 | 23 | 31 | 0.0 | 0.0 | 0.00 | 0.00 | 0.00 | 89 | 1014.3 |
| 20260905024815 | 23 | 31 | 0.0 | 0.0 | 0.00 | 0.00 | 0.00 | 89 | 1014.3 |
| 20260905024759 | 23 | 32 | 0.0 | 0.0 | 0.00 | 0.00 | 0.00 | 89 | 1014.3 |
| 20260905024609 | 23 | 30 | 0.0 | 0.0 | 0.00 | 0.00 | 0.00 | 89 | 1014.2 |
| 20260905024411 | 23 | 31 | 0.0 | 0.0 | 0.00 | 0.00 | 0.00 | 89 | 1014.2 |
| 20260905024259 | 23 | 31 | 0.0 | 0.0 | 0.00 | 0.00 | 0.00 | 89 | 1014.2 |
| 20260905024206 | 23 | 31 | 0.0 | 0.0 | 0.00 | 0.00 | 0.00 | 89 | 1014.2 |
| 20260905024059 | 23 | 31 | 0.0 | 0.0 | 0.00 | 0.00 | 0.00 | 88 | 1014.1 |
| 20260905024049 | 23 | 31 | 0.0 | 0.0 | 0.00 | 0.00 | 0.00 | 88 | 1014.2 |
| 20260905023603 | -17 | 0.0 | 0.0 | 0.00 | 0.00 | 0.00 | |||
| 20260905023311 | -17 | 0.0 | 0.0 | 0.00 | 0.00 | 0.00 | |||
| 20260905023107 | -17 | 0.0 | 0.0 | 0.00 | 0.00 | 0.00 | |||
| 20260905022906 | -17 | 0.0 | 0.0 | 0.00 | 0.00 | 0.00 | |||
| 20260905022823 | -17 | 0.0 | 0.0 | 0.00 | 0.00 | 0.00 | |||
| 20260905022535 | -17 | 0.0 | 0.0 | 0.00 | 0.00 | 0.00 | 1013.8 | ||
| 20260905022237 | -17 | 0.0 | 0.0 | 0.00 | 0.00 | 0.00 | 1013.8 | ||
| 20260905022107 | -17 | 0.0 | 0.0 | 0.00 | 0.00 | 0.00 | 1013.8 | ||
| 20260905022102 | -17 | 0.0 | 0.0 | 0.00 | 0.00 | 0.00 | 1013.8 | ||
| 20260905021845 | 23 | 35 | 0.0 | 0.0 | 0.00 | 0.00 | 0.00 | 87 | 1013.8 |
| 20260905021820 | 23 | 35 | 0.0 | 0.0 | 0.00 | 0.00 | 0.00 | 87 | 1013.8 |
| 20260905021406 | 23 | 35 | 0.0 | 0.0 | 0.00 | 0.00 | 0.00 | 87 | 1013.8 |
| 20260905021206 | 23 | 35 | 0.0 | 0.0 | 0.00 | 0.00 | 0.00 | 87 | 1013.8 |
| 20260905021114 | 23 | 35 | 0.0 | 0.0 | 0.00 | 0.00 | 0.00 | 87 | 1013.8 |
| 20260905021105 | 23 | 35 | 0.0 | 0.0 | 0.00 | 0.00 | 0.00 | 87 | 1013.8 |
| 20260905020915 | 24 | 35 | 0.0 | 0.0 | 0.00 | 0.00 | 0.00 | 87 | 1013.7 |
| 20260905020900 | 24 | 35 | 0.0 | 0.0 | 0.00 | 0.00 | 0.00 | 88 | 1013.8 |
| 20260905020404 | 24 | 34 | 0.0 | 0.0 | 0.00 | 0.00 | 0.00 | 87 | 1013.7 |
| 20260905020204 | 24 | 35 | 0.0 | 0.0 | 0.00 | 0.00 | 0.00 | 87 | 1013.6 |
| 20260905020117 | 24 | 35 | 0.0 | 0.0 | 0.00 | 0.00 | 0.00 | 87 | 1013.7 |
| 20260905020006 | 24 | 35 | 0.0 | 0.0 | 0.00 | 0.00 | 0.00 | 87 | 1013.7 |
| 20260905015805 | 24 | 35 | 0.0 | 0.0 | 0.00 | 0.00 | 0.00 | 87 | 1013.6 |
| 20260905015714 | -17 | 0.0 | 0.0 | 0.00 | 0.00 | 0.00 | 1013.7 | ||
| 20260905015609 | -17 | 0.0 | 0.0 | 0.00 | 0.00 | 0.00 | 1013.7 | ||
| 20260905015010 | 24 | 35 | 0.0 | 0.0 | 0.00 | 0.00 | 0.00 | 87 | 1013.5 |
| 20260905014804 | 24 | 35 | 0.0 | 0.0 | 0.00 | 0.00 | 0.00 | 86 | 1013.6 |
| 20260905014756 | 24 | 35 | 0.0 | 0.0 | 0.00 | 0.00 | 0.00 | 86 | 1013.5 |
| 20260905014629 | 24 | 35 | 0.0 | 0.0 | 0.00 | 0.00 | 0.00 | 86 | 1013.5 |
| 20260905014404 | 24 | 35 | 0.0 | 0.0 | 0.00 | 0.00 | 0.00 | 86 | 1013.5 |
| 20260905014204 | 24 | 35 | 0.0 | 0.0 | 0.00 | 0.00 | 0.00 | 86 | 1013.4 |
| 20260905014129 | 24 | 35 | 0.0 | 0.0 | 0.00 | 0.00 | 0.00 | 86 | 1013.4 |
| 20260905014006 | 24 | 34 | 0.0 | 0.0 | 0.00 | 0.00 | 0.00 | 86 | 1013.5 |
| 20260905013800 | 25 | 34 | 0.0 | 0.0 | 0.00 | 0.00 | 0.00 | 86 | 1013.5 |
| 20260905013635 | 25 | 34 | 0.0 | 0.0 | 0.00 | 0.00 | 0.00 | 86 | 1013.4 |
| 20260905013559 | 25 | 34 | 0.0 | 0.0 | 0.00 | 0.00 | 0.00 | 86 | 1013.4 |
| 20260905013339 | 25 | 35 | 0.0 | 0.0 | 0.00 | 0.00 | 0.00 | 85 | 1013.4 |
| 20260905013332 | 25 | 35 | 0.0 | 0.0 | 0.00 | 0.00 | 0.00 | 86 | 1013.5 |
| 20260905013131 | 25 | 35 | 0.0 | 0.0 | 0.00 | 0.00 | 0.00 | 85 | 1013.4 |
| 20260905013006 | 25 | 35 | 0.0 | 0.0 | 0.00 | 0.00 | 0.00 | 85 | 1013.5 |
| 20260905012730 | 25 | 34 | 0.0 | 0.0 | 0.00 | 0.00 | 0.00 | 85 | 1013.5 |
| 20260905012630 | 25 | 35 | 0.0 | 0.0 | 0.00 | 0.00 | 0.00 | 85 | 1013.5 |
| 20260905012530 | 25 | 35 | 0.0 | 0.0 | 0.00 | 0.00 | 0.00 | 85 | 1013.5 |
| 20260905012331 | 25 | 35 | 0.0 | 0.0 | 0.00 | 0.00 | 0.00 | 85 | 1013.5 |
| 20260905012121 | 25 | 35 | 0.0 | 0.0 | 0.00 | 0.00 | 0.00 | 85 | 1013.4 |
| 20260905011949 | 25 | 35 | 0.0 | 0.0 | 0.00 | 0.00 | 0.00 | 84 | 1013.4 |
| 20260905011941 | 25 | 34 | 0.0 | 0.0 | 0.00 | 0.00 | 0.00 | 85 | 1013.4 |
| 20260905011629 | 25 | 35 | 0.0 | 0.0 | 0.00 | 0.00 | 0.00 | 84 | 1013.4 |
| 20260905011558 | 25 | 35 | 0.0 | 0.0 | 0.00 | 0.00 | 0.00 | 84 | 1013.4 |
| 20260905011544 | 25 | 35 | 0.0 | 0.0 | 0.00 | 0.00 | 0.00 | 84 | 1013.4 |
| 20260905011419 | 25 | 35 | 0.0 | 0.0 | 0.00 | 0.00 | 0.00 | 84 | 1013.4 |
| 20260905010932 | 25 | 35 | 0.0 | 0.0 | 0.00 | 0.00 | 0.00 | 84 | 1013.4 |
| 20260905010701 | 25 | 35 | 0.0 | 0.0 | 0.00 | 0.00 | 0.00 | 84 | 1013.3 |
| 20260905010620 | 25 | 35 | 0.0 | 0.0 | 0.00 | 0.00 | 0.00 | 84 | 1013.4 |
| 20260905010503 | 25 | 35 | 0.0 | 0.0 | 0.00 | 0.00 | 0.00 | 84 | 1013.4 |
| 20260905010457 | 26 | 34 | 0.0 | 0.0 | 0.00 | 0.00 | 0.00 | 84 | 1013.3 |
| 20260905010453 | 26 | 34 | 0.0 | 0.0 | 0.00 | 0.00 | 0.00 | 84 | 1013.3 |
| 20260905010355 | 25 | 35 | 0.0 | 0.0 | 0.00 | 0.00 | 0.00 | 84 | 1013.3 |
| 20260905005915 | 26 | 35 | 0.0 | 0.0 | 0.00 | 0.00 | 0.00 | 84 | 1013.3 |
| 20260905005758 | 26 | 35 | 0.0 | 0.0 | 0.00 | 0.00 | 0.00 | 83 | 1013.3 |
| 20260905005618 | 26 | 35 | 0.0 | 0.0 | 0.00 | 0.00 | 0.00 | 83 | 1013.3 |
| 20260905005458 | 26 | 37 | 0.0 | 0.0 | 0.00 | 0.00 | 0.00 | 83 | 1013.2 |
| 20260905005453 | 26 | 34 | 0.0 | 0.0 | 0.00 | 0.00 | 0.00 | 82 | 1013.2 |
| 20260905005341 | 26 | 35 | 0.0 | 0.0 | 0.00 | 0.00 | 0.00 | 82 | 1013.1 |
| 20260905005059 | 26 | 35 | 0.0 | 0.0 | 0.00 | 0.00 | 0.00 | 82 | 1013.2 |
| 20260905004935 | 26 | 35 | 0.0 | 0.0 | 0.00 | 0.00 | 0.00 | 82 | 1013.2 |
| 20260905004740 | 26 | 35 | 0.0 | 0.0 | 0.00 | 0.00 | 0.00 | 81 | 1013.1 |
| 20260905004606 | 26 | 35 | 0.0 | 0.0 | 0.00 | 0.00 | 0.00 | 81 | 1013.1 |
| 20260905004440 | 26 | 35 | 0.0 | 0.0 | 0.00 | 0.00 | 0.00 | 81 | 1013.1 |
| 20260905004336 | 26 | 35 | 0.0 | 0.0 | 0.00 | 0.00 | 0.00 | 81 | 1013.1 |
| 20260905004104 | 26 | 34 | 0.0 | 0.0 | 0.00 | 0.00 | 0.00 | 81 | 1013.2 |
| 20260905004036 | 26 | 35 | 0.0 | 0.0 | 0.00 | 0.00 | 0.00 | 81 | 1013.1 |
| 20260905003855 | 26 | 37 | 0.0 | 0.0 | 0.00 | 0.00 | 0.00 | 81 | 1013.2 |
| 20260905003636 | 26 | 35 | 0.0 | 0.0 | 0.00 | 0.00 | 0.00 | 80 | 1013.2 |
| 20260905003602 | 27 | 35 | 0.0 | 0.0 | 0.00 | 0.00 | 0.00 | 80 | 1013.2 |
| 20260905003436 | 27 | 35 | 0.0 | 0.0 | 0.00 | 0.00 | 0.00 | 80 | 1013.1 |
| 20260905003234 | 27 | 34 | 0.0 | 0.0 | 0.00 | 0.00 | 0.00 | 80 | 1013.1 |
| 20260905003104 | 27 | 34 | 0.0 | 0.0 | 0.00 | 0.00 | 0.00 | 80 | 1013.2 |
| 20260905003033 | 27 | 35 | 0.0 | 0.0 | 0.00 | 0.00 | 0.00 | 80 | 1013.2 |
| 20260905002835 | 27 | 35 | 0.0 | 0.0 | 0.00 | 0.00 | 0.00 | 80 | 1013.2 |